[{"header": {"dx": 0.06612293990616946, "dy": 0.0552356325346848, "nx": 98, "ny": 59, "la1": 35.046912555036876, "la2": 31.78801023549047, "lo1": -121.43107172385933, "lo2": -114.95102361305473, "refTime": "2026040822", "parameterCategory": 1, "parameterNumber": 2}, "data": [10.52, 10.52, 10.52, 10.81, 10.81, 11.09, 11.09, 11.44, 11.44, 12.05, 11.32, 10.24, 10.63, 10.18, 9.97, 10.58, 11.14, 10.12, 7.67, 1.75, 0.0, 0.0, 0.0, 0.0, 0.0, 0.0, -0.95, -0.95, -1.98, -1.98, -0.96, -1.05, 0.0, 0.0, 1.99, 3.47, 4.58, 5.37, 5.37, 6.11, 7.07, 8.18, 9.48, 10.61, 11.88, 12.27, 13.89, 14.0, 14.88, 13.2, 10.96, 10.6, 10.58, 10.25, 10.28, 10.25, 10.25, 10.14, 10.41, 10.41, 9.92, 9.55, 9.13, 8.58, 7.2, 7.2, 7.2, 7.53, 8.91, 10.18, 11.03, 9.54, 8.6, 8.38, 8.38, 8.41, 9.26, 10.73, 11.62, 9.83, 6.26, 4.92, 3.48, 3.48, 4.4, 3.58, 4.57, 5.6, 4.58, 2.83, 1.84, 1.94, 2.97, 4.56, 4.96, 5.36, 6.64, 6.64, 10.52, 10.52, 10.52, 10.82, 10.81, 11.1, 11.44, 11.44, 11.8, 11.8, 11.05, 11.03, 10.4, 9.74, 11.03, 10.91, 9.97, 11.35, 8.4, 4.44, 0.0, 0.0, 0.0, 0.0, 0.0, 0.0, -0.95, -0.95, -1.84, -1.84, -1.1, -1.03, 0.0, 0.96, 1.98, 3.97, 4.68, 5.53, 5.1, 5.89, 6.95, 8.82, 9.76, 10.58, 12.22, 13.18, 14.66, 14.41, 13.23, 11.97, 10.2, 10.18, 9.97, 9.72, 9.81, 10.28, 10.28, 10.25, 10.69, 10.58, 10.12, 9.49, 8.99, 8.91, 8.06, 8.06, 7.63, 8.06, 8.91, 10.28, 10.96, 10.66, 9.39, 8.49, 8.05, 8.49, 9.83, 10.73, 11.62, 9.83, 6.26, 4.92, 3.48, 3.48, 4.4, 3.58, 4.57, 5.6, 4.58, 2.83, 1.84, 1.94, 2.97, 4.56, 4.96, 5.36, 6.64, 6.64, 10.52, 10.52, 10.52, 10.47, 10.81, 11.45, 11.45, 11.8, 12.42, 11.8, 10.09, 8.15, 9.81, 10.0, 9.74, 10.18, 10.68, 11.11, 10.08, 7.27, 2.39, 0.0, 0.0, 0.0, 0.0, 0.0, -0.89, -0.95, -0.89, -0.94, -0.94, -0.94, 0.0, 0.0, 2.64, 4.37, 4.5, 5.36, 6.04, 6.42, 7.44, 9.1, 10.65, 12.2, 13.91, 14.38, 15.02, 12.8, 11.72, 9.2, 9.2, 9.13, 9.49, 9.68, 9.26, 9.8, 9.83, 10.28, 10.28, 10.24, 10.24, 9.68, 9.21, 8.77, 8.14, 8.06, 8.29, 8.73, 9.64, 10.52, 11.0, 11.18, 10.65, 8.91, 8.77, 8.49, 10.28, 12.07, 12.07, 10.73, 6.0, 5.81, 5.36, 5.36, 4.0, 3.22, 4.19, 4.74, 3.77, 1.95, 2.23, 2.33, 4.18, 4.78, 5.63, 6.64, 7.06, 6.73, 10.52, 10.52, 10.48, 10.47, 10.81, 11.45, 11.8, 12.16, 12.42, 11.69, 10.09, 8.19, 9.4, 9.27, 10.0, 10.0, 10.55, 10.8, 10.85, 8.82, 4.2, 1.62, 0.0, 0.0, 0.0, -1.62, -0.94, -0.89, 0.0, 0.0, 0.0, 0.0, 0.0, 0.0, 2.69, 4.2, 4.88, 6.5, 5.86, 7.63, 9.52, 12.36, 12.66, 12.51, 12.33, 12.63, 10.37, 9.2, 8.6, 8.58, 8.3, 8.99, 9.21, 9.24, 9.35, 9.35, 9.83, 9.83, 10.28, 10.28, 9.79, 9.79, 9.21, 8.77, 8.77, 8.33, 8.77, 8.77, 9.68, 11.02, 11.91, 12.52, 10.8, 5.06, 6.32, 8.72, 10.28, 12.52, 13.41, -0.0, 5.2, 4.34, 4.09, 2.4, 1.98, 3.55, 3.77, 3.77, 2.83, 2.6, 2.93, 3.77, 4.4, 4.98, 6.64, 7.51, 7.15, 6.01, 10.52, 10.15, 10.48, 10.81, 10.81, 11.15, 11.8, 12.07, 12.42, 11.69, 9.77, 7.55, 8.31, 9.58, 9.6, 10.4, 10.23, 10.63, 10.63, 9.65, 6.87, 1.69, 1.76, 0.0, 0.0, 0.0, 0.0, 0.0, 0.0, 0.0, 0.0, 0.0, 0.0, 0.0, 1.39, 2.71, 4.08, 6.3, 7.36, 8.58, 10.44, 11.42, 10.75, 10.58, 9.96, 10.04, 9.42, 9.36, 9.24, 9.06, 9.24, 9.35, 9.39, 9.39, 9.39, 9.83, 9.39, 9.83, 9.83, 9.79, 9.79, 9.79, 9.21, 8.77, 8.77, 8.77, 8.33, 8.29, 9.21, 10.28, 11.56, 13.01, 9.17, 0.0, 2.54, 5.69, 9.11, 9.83, -12.07, 11.18, 5.36, 4.09, 2.99, 1.96, 2.83, 2.54, 3.8, 3.6, 4.4, 4.24, 2.71, 3.3, 4.0, 5.82, 7.51, 7.81, 6.79, 5.53, 10.52, 10.15, 10.48, 10.48, 10.81, 11.15, 11.8, 12.07, 12.07, 11.69, 9.42, 7.25, 7.97, 9.2, 10.17, 10.0, 10.04, 10.43, 10.04, 10.04, 8.85, 3.47, 1.83, 0.0, 0.0, 0.0, 0.0, 0.0, 0.0, 0.0, 0.85, 0.89, 1.69, 2.93, 3.25, 3.14, 4.43, 7.44, 8.2, 7.8, 7.89, 8.2, 8.42, 9.62, 10.66, 10.43, 10.0, 10.18, 9.97, 10.14, 10.25, 9.83, 9.83, 9.8, 9.8, 9.8, 9.8, 9.35, 9.79, 9.79, 9.79, 9.33, 8.73, 8.33, 8.77, 8.77, 8.29, 7.85, 7.85, 8.48, 9.8, 10.09, 10.41, 8.85, 8.22, 7.6, 6.36, 5.6, 5.81, -9.39, -0.0, 1.73, 2.26, 2.09, 2.21, 3.35, 4.21, 4.88, 5.77, 4.4, 3.3, 3.61, 4.68, 6.01, 7.51, 7.58, 6.01, 4.5, 10.52, 10.15, 10.15, 10.48, 11.15, 11.49, 11.8, 11.8, 12.07, 10.65, 8.73, 6.62, 7.68, 9.03, 10.62, 10.32, 10.96, 10.8, 10.04, 9.92, 9.69, 7.36, 2.64, 1.38, 0.0, 0.0, 0.0, 0.0, 0.0, 0.0, 0.0, 0.85, 3.36, 5.06, 5.57, 4.74, 5.31, 6.88, 6.0, 4.98, 4.89, 4.81, 6.51, 8.83, 10.43, 10.56, 10.81, 10.32, 10.18, 10.91, 10.66, 9.8, 10.28, 10.28, 10.28, 10.28, 9.83, 9.83, 9.83, 9.79, 9.77, 9.16, 8.73, 8.29, 8.33, 8.33, 8.0, 7.55, 7.55, 7.37, 8.79, 8.15, 7.21, 7.9, 7.24, 5.75, 4.43, 4.4, 1.55, -0.0, -1.98, -0.0, -0.0, 1.69, 3.53, 5.0, 5.98, 7.26, 4.8, 3.87, 3.61, 5.1, 5.15, 6.91, 7.2, 6.45, 4.94, 3.45, 9.85, 10.52, 10.48, 10.81, 11.49, 11.49, 11.8, 11.8, 11.72, 10.3, 8.15, 6.64, 7.27, 9.58, 10.55, 9.74, 10.8, 11.2, 10.87, 10.66, 10.41, 8.37, 4.81, 4.12, 2.8, 1.83, 0.0, 0.0, -1.83, -1.48, 0.0, 0.0, 3.96, 5.6, 6.0, 5.6, 5.27, 7.59, 6.95, 1.64, 2.81, 4.38, 6.54, 9.24, 10.3, 9.48, 8.82, 9.42, 9.42, 10.21, 9.49, 9.97, 10.58, 10.25, 10.25, 10.28, 10.28, 9.83, 9.39, 9.83, 9.33, 9.33, 8.0, 8.0, 8.0, 8.44, 8.49, 8.49, 7.6, 7.1, 7.81, 7.81, 8.63, 8.73, 6.71, 7.59, 8.05, 4.65, 2.6, -0.0, -1.76, -3.8, -2.39, -0.0, 3.82, 7.19, 6.7, 5.0, 3.82, 3.49, 4.4, 3.47, 5.37, 6.18, 6.18, 4.68, 4.0, 3.45, 10.18, 10.86, 10.48, 10.81, 11.49, 11.49, 11.8, 11.44, 11.36, 9.94, 8.15, 6.51, 7.54, 8.61, 9.3, 10.12, 10.12, 11.04, 11.26, 10.79, 10.01, 8.44, 7.19, 5.6, 3.34, 1.64, 0.0, 0.0, -2.21, 0.0, 0.0, 1.51, 2.98, 4.38, 5.4, 5.64, 4.8, -0.0, -0.0, 10.28, 0.0, 3.47, 5.02, 5.11, 7.54, 7.27, 8.22, 9.3, 8.18, 8.43, 9.6, 9.24, 9.75, 10.41, 10.14, 10.14, 10.14, 9.35, 9.35, 9.39, 9.39, 8.49, 7.6, 7.6, 8.94, 8.94, 8.94, 9.33, 7.98, 7.6, 8.05, 8.89, 10.65, 11.46, 10.41, 8.67, 7.45, 6.7, 4.6, 1.71, -0.0, -5.37, -6.79, -6.01, -0.0, -0.0, -0.0, -0.0, 2.4, 2.73, 3.48, 4.11, 4.43, 4.87, 5.15, 3.99, 4.0, 4.5, 10.51, 10.86, 10.81, 10.81, 11.49, 11.49, 11.44, 11.44, 11.04, 9.66, 8.52, 7.8, 7.36, 8.45, 9.32, 8.97, 9.62, 9.92, 10.12, 9.76, 8.85, 7.51, 6.0, 5.8, 3.92, 2.58, 1.4, 0.0, 0.0, 0.0, 1.58, 1.78, 2.15, 7.44, 10.8, 9.6, 8.05, -0.0, -0.0, 2.39, 4.8, 5.4, 4.8, 4.5, 5.24, 6.79, 8.73, 10.4, 10.62, 8.58, 8.3, 8.4, 9.24, 9.75, 9.75, 9.97, 9.97, 9.49, 9.21, 9.16, 8.43, 7.6, 8.05, 8.6, 8.67, 8.49, 8.94, 8.14, 7.63, 7.53, 8.24, 9.77, 11.62, 11.62, 10.28, 9.39, 8.94, 8.06, -0.0, -0.0, 2.13, -0.0, -8.49, -6.71, -6.71, -7.15, -6.71, -0.0, -0.0, 3.16, 1.8, 1.3, 2.32, 3.2, 3.77, 3.6, 3.8, 4.5, 10.51, 10.48, 10.81, 10.81, 10.81, 11.49, 11.44, 11.1, 10.7, 9.66, 9.46, 8.82, 9.13, 10.15, 10.58, 10.58, 10.77, 9.62, 10.75, 11.76, 12.24, 10.99, 7.0, 6.0, 7.26, 7.44, 7.27, 7.27, 5.8, 2.81, 2.2, 0.0, 8.22, 6.97, 9.08, 10.4, 6.71, 3.65, 3.97, 4.87, 5.37, 8.0, 7.87, 4.83, 5.31, 5.77, 7.2, 7.63, 7.85, 8.29, 8.56, 8.99, 9.06, 9.24, 9.66, 9.9, 9.77, 8.8, 8.21, 8.37, 8.94, 6.52, 5.72, 6.11, 6.79, 8.3, 9.35, 8.99, 6.79, 6.45, 8.15, 9.63, 11.28, 11.06, 10.58, 10.18, 8.4, 6.64, -2.28, -0.0, 2.37, 2.45, -0.0, -9.83, -7.2, -6.32, -7.6, -8.49, -6.71, -0.0, -0.0, -0.0, -0.0, 1.98, 3.77, 3.99, 4.21, 5.15, 10.12, 10.48, 10.48, 10.81, 10.81, 11.15, 11.44, 11.1, 10.7, 10.01, 10.06, 9.48, 10.12, 10.77, 11.26, 11.2, 11.47, 12.79, 13.99, 14.58, 13.52, 12.72, 10.85, 8.93, 7.15, -0.0, -0.0, -0.0, 3.48, 6.71, 8.49, 3.72, 2.12, 2.6, 5.29, 6.42, 6.58, 5.15, 6.18, 6.52, 6.99, 7.2, 8.94, 8.4, 6.01, 5.49, 7.28, 7.47, 8.38, 8.38, 7.85, 8.33, 8.77, 8.77, 8.33, 8.33, 8.48, 7.64, 6.01, 8.4, 1.75, 2.17, 3.81, 5.21, 6.04, 7.35, 8.43, 8.89, 5.53, 3.6, 5.2, 7.81, 9.6, 9.45, 8.55, 9.58, 10.73, -0.0, -7.27, -3.68, -0.0, -0.0, -0.0, -6.64, -8.49, -7.6, -6.32, -6.95, -8.49, -6.79, -4.84, -2.48, -0.0, 1.05, 3.45, 4.75, 4.75, 4.75, 10.12, 10.48, 10.48, 10.81, 10.81, 11.15, 11.1, 10.77, 11.04, 10.35, 10.35, 10.13, 10.46, 11.1, 12.54, 13.46, 13.02, 12.51, 12.18, 12.18, 11.86, 12.47, 12.92, 10.71, 5.81, -0.0, -3.16, -3.16, -3.48, -1.27, 1.19, 2.8, 3.22, 2.99, 2.99, 3.72, 4.29, 5.84, 6.32, 7.4, 7.4, 6.88, 8.94, 8.77, 7.07, 5.69, 6.44, 7.89, 7.89, 7.94, 6.98, 8.01, 8.45, 8.43, 8.4, 7.15, 6.8, 7.2, -3.6, -5.1, -0.0, 1.75, 3.63, 4.34, 5.21, 5.64, 6.05, 5.36, 6.8, 0.94, 1.84, 4.87, 5.37, 5.15, 6.64, 11.18, 2.82, -0.0, -3.39, -9.6, -6.01, -3.6, -4.6, -0.0, -0.0, -8.49, -10.18, -9.75, -8.49, -8.49, -6.71, -5.09, -1.55, -0.0, 3.0, 4.02, 4.74, 4.29, 10.12, 10.48, 10.48, 10.48, 10.81, 11.15, 10.78, 10.77, 11.04, 10.7, 10.7, 10.77, 11.1, 11.44, 12.35, 13.68, 14.11, 13.81, 14.21, 14.0, 14.11, 14.2, 14.71, 13.81, 9.37, 5.73, 4.92, -0.0, -4.11, -4.43, -1.55, 1.41, 3.2, 3.91, 4.19, 3.72, 4.74, 6.32, 6.99, 7.31, 7.54, 6.71, 9.83, 11.18, 7.07, 6.7, 6.23, 8.94, 10.28, 10.28, 9.39, 8.94, 10.41, 5.2, 3.82, 4.68, 7.28, 6.71, 7.15, -2.82, -0.0, 1.33, 3.7, 4.2, 3.63, 4.2, 3.88, 3.06, 3.4, 0.0, 0.0, 1.84, 1.84, 1.98, -0.0, 1.69, 2.7, 3.35, 3.49, -0.0, -8.05, -8.94, -8.22, -3.96, -0.0, -2.49, -6.2, -8.55, -6.8, -6.71, -7.15, -6.71, -4.11, -0.0, 2.8, 4.74, 3.47, 1.63, 10.12, 10.48, 10.48, 10.48, 10.48, 11.15, 11.15, 11.1, 11.04, 11.04, 11.04, 11.04, 11.1, 11.44, 12.7, 13.55, 13.85, 14.22, 14.72, 14.9, 14.64, 14.81, 14.93, 15.02, 12.31, 9.75, 6.64, 4.47, 4.92, 4.8, 2.2, 0.98, 3.0, 4.29, 4.29, 3.91, 6.01, 6.6, 8.06, 7.15, 7.15, 8.05, 11.18, 10.73, 7.6, 7.6, 2.4, 3.0, 5.06, 7.87, 9.96, 9.55, 6.95, 2.82, 3.2, 5.69, 7.06, 6.51, 5.82, 2.69, 0.85, 2.69, 3.8, 4.0, 4.2, 4.2, 3.7, 5.21, 6.64, 6.79, 1.1, -1.01, -5.37, -1.58, -0.0, 1.75, 2.83, 4.68, 4.42, 4.83, -0.0, 7.6, -0.0, -0.0, -0.0, -0.0, -1.76, -3.82, -2.82, -4.22, -7.6, -7.6, -6.71, 6.26, -0.0, 1.63, 1.14, 1.14, 10.12, 10.48, 10.48, 10.48, 10.48, 10.81, 10.81, 11.1, 11.39, 11.04, 11.04, 11.39, 11.39, 11.73, 12.42, 13.32, 13.68, 13.87, 14.22, 14.53, 14.95, 15.11, 15.25, 15.38, 14.13, 11.89, 9.6, 7.15, 5.81, 4.92, 4.02, 2.86, 1.84, 4.29, 3.68, 3.33, 5.84, 6.99, 7.94, 7.6, 6.71, 6.71, 7.6, 7.5, 6.64, 2.99, -0.0, 1.32, 3.91, 5.37, 6.52, 6.08, 5.37, 4.29, 4.74, 6.0, 7.45, 7.89, 7.28, 4.96, 3.6, 4.14, 4.56, 4.56, 4.56, 4.83, 4.58, 6.98, 7.81, 7.89, 5.72, 0.0, -0.0, -0.0, 1.75, 3.63, 4.74, 5.82, 6.32, 5.44, 6.32, 3.6, 1.1, -0.0, 0.89, 1.75, -0.0, -1.4, -1.18, -0.0, -4.22, -6.71, -0.0, -0.0, -0.0, 1.1, 0.96, 0.96, 10.12, 10.12, 10.48, 10.15, 10.48, 10.81, 10.81, 11.1, 11.39, 11.39, 11.39, 11.64, 11.64, 11.73, 12.68, 13.28, 13.12, 13.34, 13.71, 14.03, 14.72, 14.95, 15.25, 15.46, 14.71, 12.06, 11.6, 11.15, 9.83, 8.47, 7.13, 5.75, 3.16, 4.29, 2.47, 3.33, 4.74, 6.4, 6.58, 7.15, 7.15, 5.51, 6.52, 5.82, 6.01, 3.8, 2.69, 4.14, 5.69, 6.9, 7.6, 7.6, 6.63, 6.9, 6.52, 7.45, 7.94, 8.06, 7.67, 6.64, 6.98, 6.01, 6.08, 5.72, 5.72, 5.37, 5.72, 6.44, 6.98, 6.9, 8.24, 3.99, 2.59, 3.36, 4.4, 5.21, 6.18, 7.27, 7.27, 6.01, 5.72, 3.8, 1.95, 0.76, 0.89, 1.75, 1.75, -1.03, -0.96, -0.0, -0.0, -0.0, -0.0, -0.0, 1.2, 1.73, 1.6, 1.6, 10.51, 10.12, 10.48, 10.15, 10.15, 10.81, 10.81, 10.77, 11.39, 11.39, 11.39, 11.64, 11.64, 12.0, 12.32, 12.27, 13.03, 13.34, 13.31, 13.81, 13.99, 14.64, 14.34, 14.2, 14.3, 13.85, 13.39, 12.79, 12.22, 11.35, 9.15, 7.15, 4.4, 2.15, 1.33, 2.16, 2.4, 5.94, 6.07, 6.51, 5.72, 5.37, 5.69, 6.01, 6.32, 4.96, 5.59, 5.59, 6.98, 8.0, 8.22, 8.0, 8.0, 7.6, 7.63, 7.63, 8.38, 8.48, 7.67, 6.98, 7.67, 7.28, 7.47, 7.06, 7.01, 6.17, 6.2, 7.01, 7.47, 7.28, 8.18, 6.83, 6.7, 7.13, 7.27, 7.76, 7.06, 6.95, 6.4, 4.94, 3.99, 4.21, 2.17, 1.75, 1.84, 1.84, 2.57, -0.0, -0.95, -0.0, 1.54, 1.32, -0.0, 0.94, 1.05, 1.96, 1.72, 1.72, 10.51, 10.51, 10.15, 10.15, 10.15, 10.47, 10.81, 10.77, 11.1, 11.39, 11.39, 11.64, 11.64, 11.64, 11.72, 12.98, 11.9, 13.03, 12.28, 12.6, 13.88, 14.81, 13.73, 14.87, 14.21, 15.15, 11.4, 13.57, 12.56, 10.85, 9.89, 8.05, 5.94, 2.98, 1.27, -0.0, 3.16, 4.47, 6.58, 7.89, 6.57, 6.32, 6.08, 5.37, 6.01, 6.01, 6.98, 7.44, 8.0, 8.22, 8.6, 8.22, 8.0, 7.6, 7.6, 8.06, 8.06, 7.67, 7.67, 8.0, 8.48, 8.06, 7.63, 6.65, 6.64, 6.26, 6.71, 7.15, 7.54, 8.48, 9.86, 9.43, 10.43, 10.8, 10.32, 9.66, 8.99, 7.13, 5.2, 4.5, 4.44, 3.3, 1.94, 1.75, 1.84, 1.75, 2.95, 3.21, -0.0, -1.22, -0.0, -0.0, -0.0, -0.0, 1.2, 2.4, 2.26, 2.26, 10.51, 10.51, 10.15, 10.15, 10.15, 10.47, 10.81, 10.77, 11.1, 11.39, 11.39, 11.64, 11.64, 11.64, 11.64, 11.6, 12.27, 11.9, 11.66, 12.56, 15.0, 14.78, 13.74, 14.39, 13.25, 13.52, 13.92, 11.2, 11.37, 10.6, 9.83, 8.49, 6.26, 3.35, 2.53, 1.6, 4.47, 5.36, 5.81, 6.26, 6.51, 6.28, 5.75, 4.54, 4.46, 7.28, 7.6, 8.48, 8.48, 8.6, 8.6, 7.6, 7.6, 7.28, 6.6, 6.99, 8.0, 6.82, 7.6, 9.03, 8.41, 8.38, 8.05, 8.05, 6.71, 6.26, 6.71, 7.15, 7.6, 8.45, 9.68, 11.33, 13.15, 13.83, 13.41, 12.07, 10.84, 7.27, 3.99, 3.99, 3.99, 2.98, 1.94, 1.94, 2.83, 2.44, 2.31, 2.31, 2.19, -0.0, -1.07, -1.26, -1.33, -0.0, 1.26, 2.83, 2.54, 2.54, 10.18, 10.51, 10.15, 10.15, 10.15, 10.47, 10.81, 10.77, 11.1, 11.39, 11.39, 11.64, 11.64, 11.64, 12.0, 12.54, 12.54, 11.32, 9.77, 11.6, 14.4, 14.39, 14.26, 12.85, 12.32, 12.77, 12.79, 12.56, 11.87, -4.8, -0.0, 4.43, 4.4, 2.6, 2.98, 3.35, 4.24, 4.92, 5.36, 6.26, 6.65, 6.45, 5.94, 4.98, 4.29, 7.2, 7.47, 8.48, 8.41, 8.41, 7.63, 6.9, 6.28, 6.28, 6.9, 6.6, 6.91, 7.2, 9.03, 8.94, 8.94, 8.49, 8.49, 8.05, 6.71, 6.71, 6.71, 7.15, 7.6, 8.45, 9.68, 11.06, 12.96, 12.83, 11.87, 11.45, 8.22, 5.75, 4.2, 2.99, 3.99, 2.98, 2.17, 2.44, 2.83, 2.69, 2.83, 2.44, 2.9, 0.84, -1.2, -3.11, -3.82, -1.25, -0.0, 1.4, 2.09, 2.09, 10.18, 10.18, 10.15, 10.15, 10.15, 10.47, 10.47, 10.77, 11.1, 11.39, 11.39, 11.64, 11.64, 11.88, 11.88, 12.54, 12.74, 12.09, 11.01, 11.72, 13.39, 14.24, 14.14, 13.68, 12.78, 13.35, 13.05, 13.05, 11.62, 7.21, 3.16, 2.84, 3.35, 3.35, 4.0, 4.4, 4.4, 4.8, 4.98, 5.51, 5.51, 5.51, 4.98, 4.8, 3.48, 4.6, 8.33, 8.49, 8.05, 7.21, 6.08, 5.37, 5.37, 5.37, 6.08, 6.44, 6.55, 7.6, 8.85, 8.94, 8.0, 8.33, 7.85, 7.85, 7.37, 7.1, 6.64, 6.71, 6.94, 8.48, 9.04, 10.62, 9.33, 5.36, 1.84, 11.18, -0.0, -0.0, 1.84, 2.46, 2.99, 2.83, 1.94, 1.94, 1.75, 1.75, 2.57, 2.7, 3.06, 2.7, -0.0, -1.69, -3.82, -1.49, -0.0, -0.0, 1.18, 1.18, 10.18, 10.18, 10.18, 10.15, 10.15, 10.47, 10.47, 10.77, 11.1, 11.39, 11.73, 12.0, 11.64, 11.88, 11.88, 12.54, 12.74, 11.99, 11.81, 12.17, 13.8, 14.38, 13.37, 13.5, 13.89, 13.43, 13.43, 12.87, 11.0, 8.05, 7.15, 5.64, 4.4, 4.4, 4.4, 4.6, 4.98, 4.98, 4.98, 5.2, 4.8, 4.8, 4.6, 4.4, 4.09, 3.93, 7.89, 7.6, 7.01, 5.72, 3.91, 5.37, 5.37, 6.08, 6.08, 6.08, 5.49, 7.2, 8.48, 7.55, 8.0, 7.63, 7.2, 7.2, 6.8, 6.45, 6.26, 5.94, 6.21, 6.82, 8.4, 8.55, -6.26, -5.58, -2.4, -8.94, -7.9, -3.53, -2.02, -0.0, 0.95, 1.0, 0.94, 0.89, 1.84, 1.84, 1.84, 2.7, 3.49, 5.21, 4.48, 1.58, -2.1, -1.99, -0.81, -0.0, -0.0, -0.0, 10.18, 10.18, 9.8, 10.15, 10.15, 10.47, 10.47, 10.77, 11.1, 11.39, 11.73, 11.73, 12.0, 11.64, 12.24, 12.54, 12.74, 12.37, 11.99, 12.17, 13.2, 13.84, 13.51, 13.26, 13.32, 13.84, 13.64, 13.15, 11.64, 9.77, 9.39, 8.05, 7.01, 5.81, 5.81, 5.94, 6.0, 6.0, 5.6, 5.21, 4.84, 4.46, 4.4, 4.57, 3.72, 4.34, 7.6, 7.45, 6.08, 4.83, 4.37, 5.69, 6.08, 6.08, 6.08, 5.72, 5.58, 6.21, 7.6, 7.47, 6.26, 6.88, 6.32, 5.95, 5.6, 5.26, 5.06, 5.31, 5.37, 6.82, 7.53, 8.48, 3.0, -4.84, -4.11, -5.81, -5.37, -5.21, -2.83, -1.25, -0.0, -0.0, -0.0, -0.0, 0.99, 1.75, 1.84, 3.32, 4.56, 5.21, 4.98, 3.4, 0.96, -0.81, -0.82, -0.0, -0.0, -0.0, 10.18, 10.18, 9.8, 10.15, 9.83, 9.83, 10.47, 10.77, 10.77, 11.39, 11.73, 11.73, 12.0, 12.0, 12.24, 12.24, 12.37, 12.37, 11.99, 12.17, 13.03, 13.34, 13.53, 14.23, 13.57, 13.26, 13.5, 12.87, 11.62, 10.91, 10.22, 9.83, 8.94, 7.5, 6.79, 6.79, 7.31, 6.99, 6.4, 5.6, 4.84, 4.46, 4.09, 4.4, 4.82, 4.92, 5.81, 6.45, 5.82, 5.06, 4.29, 6.01, 6.08, 6.08, 6.08, 5.72, 6.64, 5.6, 7.06, 6.9, 7.06, 5.51, 5.81, 5.36, 4.46, 2.82, 3.45, 5.1, 6.45, 7.37, 8.49, 9.39, 9.74, 6.71, -4.43, -5.81, -4.98, -4.02, -3.6, -3.2, -2.12, -1.72, -0.78, -0.0, -0.0, 0.89, 1.84, 3.63, 4.34, 4.71, 4.5, 4.03, 2.35, -0.0, -0.82, -0.0, -0.0, -0.0, 10.18, 10.18, 9.48, 9.48, 9.83, 9.83, 10.15, 10.77, 11.1, 11.39, 11.39, 11.73, 12.0, 12.35, 12.6, 12.24, 12.37, 12.37, 12.37, 12.74, 13.42, 13.58, 13.34, 13.82, 14.03, 13.81, 13.02, 12.5, 11.55, 11.35, 11.11, 10.73, 9.83, 8.87, 7.97, 7.97, 7.74, 7.74, 6.99, 6.4, 5.6, 5.2, 4.93, 4.93, 5.09, 5.36, 5.81, 6.71, 6.79, 6.4, 5.59, 4.89, 6.08, 4.56, 5.37, 6.08, 6.64, 6.4, 6.4, 6.9, 7.28, 7.6, 6.16, 4.89, 2.64, 2.69, 4.34, 5.36, 6.82, 7.85, 8.05, 9.83, 8.94, 8.05, 5.06, -7.89, -8.49, -6.0, -5.59, -4.75, -3.97, -2.47, -1.6, -0.78, -0.0, -0.0, 1.75, 3.45, 4.5, 3.91, 4.5, 3.79, 2.35, 0.83, -0.0, -0.0, -0.0, -0.0, 9.85, 9.85, 9.48, 9.48, 9.83, 10.15, 10.15, 10.81, 11.1, 11.1, 11.39, 11.73, 12.0, 12.35, 12.6, 12.24, 12.37, 12.37, 12.37, 13.03, 13.42, 13.42, 13.34, 13.31, 13.82, 14.03, 13.32, 12.45, 11.62, 10.92, 10.96, 10.24, 9.83, 9.39, 8.94, 8.49, 8.49, 8.49, 8.43, 7.52, 6.79, 5.94, 5.34, 4.93, 5.64, 5.81, 5.73, 6.17, 6.71, 6.58, 5.36, 4.43, 4.11, 3.07, 4.43, 5.58, 7.06, 6.4, 5.24, 5.58, 8.06, 7.63, 8.48, 5.49, 4.0, 3.45, 4.34, 6.79, 7.76, 8.29, 8.45, 8.49, 8.94, 8.94, 7.6, 0.0, -7.06, -6.71, -6.79, -5.93, -5.06, -2.99, -1.7, -0.82, -0.78, -0.0, 1.84, 3.6, 3.6, 3.6, 3.4, 3.4, 1.84, 1.0, -0.0, -0.0, 1.1, 1.1, 9.85, 9.85, 9.48, 9.48, 9.83, 10.15, 10.15, 10.81, 10.78, 11.1, 11.39, 11.73, 11.73, 12.35, 12.35, 12.6, 12.09, 12.37, 12.74, 13.42, 13.42, 13.03, 13.2, 13.34, 13.31, 13.94, 13.53, 13.04, 11.6, 11.14, 10.5, 10.14, 9.26, 8.9, 8.94, 8.94, 8.94, 8.49, 8.49, 7.97, 7.5, 6.61, 5.59, 5.59, 6.21, 6.26, 6.36, 6.23, 6.51, 6.07, 5.01, 4.11, 3.79, 3.48, 3.93, 5.37, 6.8, 5.72, 4.43, 5.58, 6.88, 8.0, 8.0, 5.84, 3.63, 4.88, 6.73, 7.82, 8.56, 8.9, 8.94, 8.94, 8.94, 8.94, 8.94, 7.6, 5.81, -6.71, -7.6, -6.88, -5.75, -4.11, -1.7, -0.88, -0.0, -0.0, 1.63, 2.67, 2.67, 2.99, 2.99, 2.99, 2.83, 2.26, 1.95, 1.14, 1.07, 1.07, 9.85, 9.85, 9.48, 9.48, 9.83, 10.15, 10.15, 10.81, 10.78, 11.1, 11.39, 11.73, 11.73, 12.35, 12.35, 12.6, 12.24, 12.37, 12.74, 13.12, 13.42, 13.03, 13.2, 12.81, 13.19, 13.19, 13.43, 13.04, 11.83, 10.8, 10.5, 9.75, 9.11, 8.82, 8.9, 8.9, 8.94, 8.94, 8.94, 8.49, 7.6, 6.71, 5.73, 6.61, 6.88, 6.2, 5.2, 1.52, 0.0, 6.36, 4.43, 3.79, 3.84, 3.93, 4.4, 4.15, 6.0, 5.06, 4.89, 6.0, 6.64, 8.05, 7.37, 5.69, 4.56, 5.89, 7.06, 7.82, 8.45, 8.94, 8.77, 9.21, 8.77, 8.9, 9.39, 8.9, 7.76, 2.99, -6.58, -7.15, -5.4, -4.11, -0.0, -0.0, -0.0, -0.0, 0.82, 1.84, 2.64, 3.0, 4.19, 3.2, 2.64, 2.51, 2.83, 2.06, 1.2, 1.2, 9.85, 9.85, 9.48, 9.48, 9.83, 10.15, 10.15, 10.81, 10.78, 11.1, 11.1, 11.39, 11.73, 12.35, 12.35, 12.6, 12.6, 12.74, 12.74, 12.74, 13.42, 13.03, 13.03, 13.2, 13.07, 12.67, 12.67, 12.66, 11.83, 10.99, 10.38, 9.66, 9.33, 8.91, 9.11, 9.24, 9.35, 9.34, 8.89, 8.49, 8.05, 7.15, 5.81, 5.36, 4.66, 7.52, 7.45, 0.0, 4.47, 1.8, 2.68, 3.49, 3.84, 4.22, 4.57, 4.57, 4.57, 3.83, 5.37, 5.81, 6.64, 7.6, 6.8, 5.53, 6.01, 6.45, 6.79, 8.18, 7.37, 7.54, 7.81, 8.0, 8.49, 8.94, 10.28, 10.28, 8.8, 5.36, 1.84, -5.6, -5.29, -6.26, -6.71, 5.81, -0.0, -0.0, 0.79, 1.66, 2.95, 3.93, 4.22, 4.11, 2.8, 2.67, 2.54, 2.06, 2.17, 2.17, 9.85, 9.85, 9.48, 9.48, 9.48, 10.15, 10.15, 10.81, 10.78, 11.1, 11.1, 11.1, 11.73, 12.08, 12.35, 12.35, 12.6, 12.74, 12.74, 12.74, 13.03, 13.03, 13.03, 13.2, 13.2, 13.07, 12.67, 12.52, 11.44, 10.6, 10.58, 10.32, 9.9, 9.08, 8.91, 9.11, 9.06, 9.24, 9.21, 8.89, 7.98, 7.08, 6.17, 5.36, 5.29, 7.52, 7.15, 4.47, 3.6, 3.22, 3.14, 3.49, 4.0, 4.22, 4.57, 4.57, 4.82, 5.26, 5.26, 6.14, 6.71, 7.37, 7.2, 6.79, 7.2, 7.2, 6.57, 6.9, 6.9, 6.94, 5.73, 6.57, 7.6, 8.99, 10.12, 11.12, 8.82, 2.46, 1.84, -0.96, -6.58, -4.77, -5.09, -4.8, -5.36, -0.0, 3.6, 3.35, 3.6, 4.38, 4.92, 4.0, 2.99, 1.84, 2.54, 2.83, 1.94, 1.94, 9.85, 9.85, 9.48, 9.48, 9.48, 10.15, 10.15, 10.81, 10.78, 11.1, 11.1, 11.1, 11.39, 11.73, 12.35, 12.35, 12.6, 12.6, 13.12, 12.74, 12.74, 13.03, 13.42, 13.42, 13.2, 13.07, 12.93, 11.99, 11.02, 9.65, 10.18, 10.18, 10.0, 9.2, 9.08, 9.33, 9.33, 9.49, 9.06, 8.77, 8.29, 7.37, 6.45, 5.51, 5.75, 6.7, 6.67, 6.23, 6.11, 5.86, 5.2, 4.8, 4.73, 3.82, 4.24, 4.66, 5.29, 5.26, 5.36, 5.81, 6.71, 7.37, 7.6, 7.35, 8.06, 7.85, 7.1, 8.05, 7.89, 8.06, 6.6, 6.45, 8.18, 10.05, 10.41, 11.0, 8.4, 1.4, -0.0, -0.0, -5.69, -9.39, -9.11, -5.94, -5.37, 0.0, 5.6, 4.02, 5.36, 4.92, 4.85, 3.58, 1.05, 0.89, 2.83, 2.69, 2.69, 2.69, 9.85, 9.85, 9.48, 9.48, 9.48, 10.15, 10.15, 10.48, 10.78, 10.78, 11.1, 11.1, 11.1, 11.39, 12.08, 12.35, 12.6, 12.6, 12.91, 12.74, 13.12, 13.12, 13.42, 13.03, 13.03, 12.93, 12.38, 11.56, 10.35, 10.28, 9.4, 9.52, 9.05, 9.27, 9.2, 8.67, 9.08, 9.33, 8.82, 8.99, 8.48, 7.85, 6.94, 6.51, 5.75, 6.79, 8.01, 7.6, 7.04, 6.98, 6.51, 6.02, 5.31, 4.87, 4.43, 4.43, 4.43, 4.85, 5.36, 4.92, 4.92, 7.31, 8.48, 7.37, 7.98, 8.05, 7.6, 7.15, 8.49, 8.85, 8.17, 7.82, 8.3, 9.68, 11.05, 11.49, 9.42, 5.93, -0.0, -1.73, -2.06, -7.27, -10.73, -9.54, -5.69, 0.0, 1.73, 2.53, 6.26, 5.73, 4.98, 3.58, -0.0, -0.0, 1.01, 1.95, 2.54, 2.54, 9.53, 9.53, 9.48, 9.48, 9.48, 10.15, 10.15, 10.48, 10.46, 10.78, 11.1, 11.1, 11.1, 11.39, 11.73, 12.35, 12.35, 12.24, 12.24, 12.91, 13.12, 13.12, 13.42, 13.03, 13.03, 12.93, 12.38, 11.56, 11.16, 11.26, 10.18, 8.93, 8.47, 8.79, 9.05, 9.2, 8.4, 8.67, 8.55, 8.82, 8.56, 7.63, 7.21, 6.7, 6.28, 6.55, 7.45, 7.56, 8.05, 8.05, 7.6, 6.71, 6.26, 5.81, 5.31, 4.43, 4.02, 4.47, 4.47, 4.47, 7.45, 7.06, 7.47, 7.47, 7.08, 7.15, 7.15, 7.15, 8.05, 8.38, 8.06, 9.46, 9.03, 9.35, 11.14, 11.8, 10.68, 10.18, 7.59, -6.95, -4.6, -0.0, -7.27, -10.28, -7.27, 0.0, 1.03, 2.3, 5.81, 6.02, 4.98, 4.02, -1.8, -0.81, -0.0, 1.84, 1.95, 1.95, 9.53, 9.53, 9.48, 9.48, 9.48, 9.83, 10.15, 10.48, 10.46, 10.78, 11.1, 11.1, 11.1, 11.1, 11.73, 12.08, 12.0, 12.24, 12.24, 12.91, 12.91, 13.12, 13.42, 13.42, 13.03, 12.93, 12.38, 11.94, 10.91, 11.04, 10.8, 9.77, 9.38, 8.93, 9.2, 8.67, 8.8, 8.8, 8.67, 8.14, 8.3, 7.47, 7.21, 6.79, 6.79, 6.55, 7.01, 7.45, 7.56, 8.0, 7.55, 7.15, 7.15, 6.26, 5.81, 5.36, 4.92, 4.47, 4.02, 4.47, 4.43, 7.06, 7.06, 7.89, 7.94, 7.94, 7.1, 7.42, 8.0, 8.0, 7.89, 9.03, 9.76, 9.8, 11.15, 11.51, 11.8, 12.35, 12.96, -12.52, -11.18, 10.28, -8.94, -8.49, -6.7, -1.03, 0.0, 3.76, 5.94, 6.02, 4.82, -0.0, -2.2, -0.88, -0.0, -0.0, 2.06, 2.06, 9.53, 9.53, 9.48, 9.48, 9.48, 9.48, 10.15, 10.15, 10.46, 10.46, 11.1, 11.1, 11.1, 11.1, 11.1, 11.73, 12.0, 12.0, 12.24, 12.91, 12.91, 13.12, 13.12, 13.42, 13.42, 12.65, 12.38, 12.33, 11.28, 11.04, 10.43, 10.32, 9.77, 9.6, 9.38, 8.82, 8.63, 8.63, 8.8, 8.55, 8.14, 7.47, 7.28, 6.85, 6.64, 6.64, 6.85, 7.28, 7.28, 7.42, 7.37, 7.1, 6.64, 6.26, 5.81, 5.36, 4.92, 4.47, 4.02, 4.47, 4.41, 4.73, 7.89, 7.08, 7.98, 8.82, 7.81, 7.85, 8.45, 8.0, 8.94, 8.0, 10.2, 10.6, 11.59, 11.59, 11.14, 11.18, 12.35, -8.85, -11.18, -8.49, -6.26, -3.48, -4.92, 0.0, 1.55, 4.47, 5.81, 5.81, 4.92, -0.0, -2.2, -1.83, -0.0, -0.0, 2.83, 2.83, 9.17, 9.17, 9.48, 9.48, 9.48, 9.48, 10.15, 10.15, 10.46, 10.46, 10.46, 11.1, 11.1, 11.1, 11.1, 11.73, 12.0, 12.0, 12.24, 12.6, 12.91, 12.91, 13.12, 13.42, 13.03, 13.03, 12.38, 12.33, 11.28, 10.79, 10.43, 10.04, 10.0, 10.32, 9.6, 9.2, 8.43, 8.63, 8.24, 8.55, 8.14, 7.33, 6.64, 8.06, 6.36, 6.4, 6.8, 6.8, 6.94, 6.94, 6.7, 6.51, 6.45, 6.2, 5.81, 5.36, 4.92, 4.47, 4.47, 4.41, 4.41, 4.85, 8.05, 7.15, 7.98, 8.82, 7.98, 8.05, 8.05, 8.05, 8.05, 8.0, 9.76, 11.35, 11.51, 10.73, 10.28, 9.39, 11.62, -11.62, -10.28, -8.49, -3.79, -0.0, -0.0, 3.16, 4.66, 4.77, 5.73, 5.73, 3.48, -0.0, -1.99, -2.2, -0.0, -0.0, 1.41, 1.58, 9.17, 9.17, 9.17, 9.48, 9.48, 9.48, 10.15, 10.15, 10.12, 10.46, 10.46, 10.77, 10.77, 10.77, 11.1, 11.73, 11.73, 12.0, 12.0, 12.6, 12.91, 12.91, 12.91, 13.42, 13.42, 13.03, 12.38, 11.94, 11.66, 11.04, 10.41, 10.04, 9.84, 10.15, 10.32, 9.77, 8.95, 8.95, 8.55, 8.55, 8.14, 7.6, 6.4, 7.63, 6.98, 7.06, 6.52, 6.0, 6.32, 6.07, 6.21, 6.16, 6.02, 6.2, 5.81, 5.36, 4.92, 4.47, 4.47, 4.47, 4.41, 4.85, 7.89, 7.15, 7.6, 8.94, 8.49, 7.6, 8.05, 8.05, 7.55, 8.38, 9.29, 10.14, 11.36, 10.6, 9.83, 9.16, 12.52, -11.87, -6.64, -3.4, -2.12, -0.0, 1.55, 3.48, 4.8, 5.26, 5.29, 4.6, 2.99, -0.0, -1.05, -2.2, -0.0, 1.08, 1.3, 1.41, 9.17, 9.17, 9.17, 9.48, 9.48, 9.48, 9.83, 10.15, 10.12, 10.46, 10.46, 10.46, 10.77, 10.77, 11.1, 11.1, 11.73, 11.73, 12.0, 12.0, 12.91, 12.91, 12.91, 12.54, 13.03, 12.65, 12.38, 11.26, 11.16, 11.03, 10.79, 10.43, 10.04, 10.23, 10.15, 9.6, 9.49, 9.08, 8.55, 8.55, 8.14, 7.6, 6.64, 6.13, 8.29, 7.89, 6.82, 4.95, 4.87, 5.06, 5.24, 6.0, 5.94, 6.17, 5.81, 5.36, 4.92, 4.47, 4.47, 4.47, 4.41, 4.85, 5.31, 8.05, 8.05, 8.05, 7.6, 7.6, 7.6, 8.0, 8.0, 7.55, 9.39, 9.76, 11.35, 9.75, 8.45, 6.8, -8.4, -9.55, -5.58, -2.73, -1.98, -0.0, 2.4, 5.51, 6.26, 6.26, 5.4, 4.11, 1.84, 1.03, -0.0, -1.08, -0.0, 1.19, 2.98, 1.3, 9.17, 9.17, 9.53, 9.17, 9.48, 9.48, 9.83, 10.15, 9.8, 10.46, 10.46, 10.46, 10.77, 10.77, 11.1, 11.1, 11.73, 11.73, 12.0, 12.0, 12.54, 12.54, 12.91, 12.91, 12.85, 12.47, 12.38, 11.63, 10.79, 10.66, 11.04, 10.41, 10.43, 10.23, 9.84, 9.74, 9.34, 9.6, 9.08, 8.67, 8.67, 7.73, 7.03, 6.25, 6.8, 8.99, 6.57, 2.6, 1.23, 3.0, 5.36, 5.81, 6.14, 6.17, 5.81, 5.36, 5.36, 4.47, 4.92, 4.92, 4.47, 4.41, 7.6, 7.6, 8.05, 8.05, 7.6, 8.49, 7.6, 8.0, 8.0, 8.05, 8.94, 8.94, 9.74, 9.45, 7.2, 6.51, -0.0, -1.7, -3.72, -4.09, -3.48, -0.0, 5.37, 7.63, 7.37, 6.4, 5.72, 4.02, 2.66, 2.12, 0.88, -0.0, -0.0, 1.41, 3.79, 3.79, 9.17, 9.17, 9.17, 9.17, 9.17, 9.48, 9.48, 10.15, 9.8, 9.8, 10.13, 10.46, 10.77, 10.77, 10.77, 11.1, 11.39, 11.73, 11.39, 12.0, 12.0, 12.54, 12.54, 12.54, 12.85, 12.47, 11.53, 11.26, 10.79, 10.9, 10.66, 10.66, 10.28, 10.63, 10.23, 9.84, 9.74, 9.34, 9.6, 9.18, 8.67, 8.25, 7.2, 6.9, 7.54, 7.84, 7.01, 5.4, 4.09, 4.29, 4.65, 5.4, 5.7, 5.81, 5.36, 5.36, 4.92, 4.92, 4.92, 4.92, 4.92, 4.92, 4.85, 8.05, 8.05, 7.89, 8.38, 8.05, 7.1, 8.0, 8.05, 8.05, 8.85, 8.0, 9.39, 9.29, 7.76, 7.2, 7.2, 6.11, 3.45, -0.0, -8.0, -7.27, -0.0, 6.01, 5.58, 4.43, 4.43, 4.02, 1.4, 1.49, 1.05, -0.0, 2.0, 3.48, 3.48, 3.48, 9.17, 9.17, 9.17, 9.17, 9.17, 9.48, 9.48, 9.83, 9.8, 9.8, 10.13, 10.13, 10.46, 10.77, 10.77, 11.1, 11.1, 11.39, 11.39, 12.0, 12.0, 12.54, 12.54, 12.54, 12.17, 12.09, 11.53, 11.26, 10.79, 10.19, 10.29, 9.92, 10.28, 10.28, 10.23, 9.84, 9.84, 9.86, 9.45, 9.04, 8.76, 8.34, 7.73, 7.33, 7.46, 7.71, 7.26, 6.61, 6.14, 5.64, 5.16, 5.16, 5.29, 5.29, 5.36, 4.92, 4.92, 4.92, 5.36, 5.36, 5.36, 4.92, 4.92, 7.45, 7.45, 7.89, 8.33, 8.38, 6.94, 7.55, 8.05, 8.0, 8.33, 8.33, 8.33, 8.49, 9.06, 9.36, 9.42, 10.2, 10.41, 10.82, -0.0, -11.2, -7.59, -0.0, 2.26, 4.74, 4.43, 2.8, 1.52, 1.52, 2.6, -0.0, 2.0, 3.48, 3.48, 3.48, 8.85, 8.85, 9.17, 9.17, 9.17, 9.17, 9.48, 9.83, 9.48, 9.8, 10.13, 10.13, 10.46, 10.77, 10.77, 11.1, 11.1, 11.39, 11.39, 11.72, 12.32, 12.32, 12.54, 12.54, 12.54, 12.47, 11.53, 11.26, 10.45, 10.19, 10.53, 9.92, 9.92, 10.28, 10.28, 10.23, 9.84, 9.6, 9.86, 9.45, 9.04, 8.52, 8.0, 7.6, 7.2, 7.6, 7.93, 7.69, 7.4, 6.94, 6.47, 6.11, 5.77, 5.31, 5.31, 5.36, 5.36, 5.36, 5.36, 5.36, 5.81, 5.36, 5.36, 4.85, 7.47, 7.47, 8.33, 7.52, 7.54, 7.15, 8.49, 7.85, 8.06, 8.56, 8.77, 8.94, 9.24, 9.97, 10.18, 10.99, 13.43, 14.53, 14.84, -9.48, -7.9, -4.4, -0.0, 4.74, 3.72, 1.84, 2.83, 2.98, 1.7, 1.55, 2.0, 2.2, 2.2, 2.2, 8.85, 8.85, 8.85, 9.17, 9.17, 9.17, 9.48, 9.83, 9.48, 9.8, 10.13, 10.13, 10.46, 10.77, 10.44, 10.76, 10.76, 11.39, 11.39, 11.39, 11.72, 11.96, 12.32, 12.32, 12.27, 12.27, 11.9, 10.96, 10.68, 10.09, 10.19, 10.19, 9.92, 9.92, 10.28, 9.9, 10.0, 9.6, 9.6, 9.2, 9.04, 8.63, 8.12, 7.71, 7.6, 7.6, 7.93, 7.93, 7.69, 7.4, 6.94, 6.6, 6.58, 6.11, 5.32, 5.31, 5.31, 5.75, 5.81, 5.81, 5.81, 5.81, 5.81, 5.26, 4.93, 8.33, 8.49, 7.6, 7.6, 7.6, 7.85, 8.06, 8.29, 8.33, 8.9, 8.94, 9.79, 10.14, 9.97, 10.18, 10.6, 13.44, 14.99, -0.0, -8.53, -4.8, -0.0, 4.0, 3.4, -0.0, 2.6, 2.2, 1.05, 2.2, 2.2, 1.55, 1.55, 1.55, 8.85, 8.85, 8.85, 8.79, 9.17, 9.17, 9.17, 9.48, 9.48, 9.8, 9.8, 10.13, 10.13, 10.46, 10.44, 10.44, 10.44, 10.44, 10.77, 11.36, 11.72, 11.72, 12.27, 12.65, 12.65, 12.27, 11.9, 11.32, 10.73, 10.45, 9.84, 10.19, 10.19, 9.92, 9.92, 9.9, 10.09, 10.0, 9.6, 9.2, 8.8, 8.4, 7.87, 7.87, 7.71, 7.71, 7.71, 7.71, 7.93, 7.69, 7.21, 6.94, 6.9, 6.58, 5.67, 5.64, 5.75, 5.75, 6.2, 6.26, 6.26, 6.26, 5.81, 5.7, 5.09, 8.49, 8.05, 7.94, 7.94, 7.85, 8.06, 8.29, 8.33, 8.9, 8.94, 9.39, 9.79, 10.25, 10.14, 9.97, 10.41, 11.71, 14.64, 14.3, -12.3, -4.8, -0.0, -0.0, -0.0, -0.0, 1.41, 0.96, 1.05, 1.99, 2.2, 0.96, 0.96, 0.96, 8.85, 8.85, 8.85, 8.49, 9.17, 9.17, 9.17, 9.48, 9.48, 9.48, 9.8, 10.13, 10.13, 10.46, 10.44, 10.44, 10.44, 10.77, 10.77, 11.1, 11.72, 11.72, 12.42, 12.65, 12.65, 12.27, 11.9, 11.32, 10.73, 10.47, 10.19, 9.84, 10.19, 9.82, 9.92, 9.56, 10.09, 9.7, 9.7, 9.72, 9.32, 8.8, 8.4, 7.87, 7.87, 7.71, 7.71, 7.71, 7.71, 7.51, 7.51, 7.21, 6.9, 6.9, 5.94, 5.64, 5.59, 5.75, 6.2, 6.2, 6.26, 6.26, 6.26, 5.64, 4.98, 8.05, 8.05, 7.94, 7.94, 8.0, 8.9, 8.45, 8.9, 9.35, 9.39, 9.39, 9.39, 9.79, 9.7, 10.14, 9.97, 9.97, 12.86, 0.0, -13.41, -8.93, -0.0, -0.0, -0.0, -0.0, -0.0, -0.0, 1.19, 2.2, 2.2, -0.0, -0.0, -0.0, 8.85, 8.85, 8.85, 8.49, 8.85, 9.17, 9.17, 9.48, 9.48, 9.48, 9.8, 10.13, 10.13, 10.12, 10.12, 10.44, 10.44, 10.77, 10.77, 11.1, 11.1, 11.72, 11.72, 12.05, 12.27, 12.27, 11.9, 11.32, 11.09, 10.47, 9.84, 10.19, 10.19, 9.57, 9.57, 9.56, 9.78, 9.4, 9.7, 9.47, 9.47, 9.07, 8.54, 8.4, 7.87, 7.87, 7.71, 7.71, 7.71, 7.31, 7.43, 7.01, 7.14, 6.64, 6.36, 5.86, 5.64, 6.02, 6.02, 6.2, 6.64, 6.71, 6.26, 5.81, 5.36, 7.15, 7.6, 8.05, 8.05, 8.0, 8.77, 9.24, 9.35, 9.35, 9.35, 9.39, 9.39, 9.35, 9.24, 9.68, 9.49, 9.24, 9.6, 10.4, -12.07, -10.41, -0.0, 2.4, 1.8, -0.0, -1.27, -0.0, -0.0, 1.27, -0.0, -0.0, -0.0, -0.0, 8.85, 8.53, 8.85, 8.49, 8.49, 9.17, 9.17, 9.17, 9.48, 9.48, 9.8, 10.13, 10.46, 10.12, 9.8, 10.11, 10.43, 10.43, 10.76, 11.1, 11.1, 11.72, 11.72, 11.72, 12.05, 12.27, 11.69, 11.69, 11.09, 10.47, 10.18, 10.19, 9.9, 9.92, 9.57, 9.21, 9.4, 9.4, 9.4, 9.2, 9.2, 9.07, 9.07, 8.54, 8.27, 7.87, 7.87, 7.48, 7.48, 7.31, 7.2, 7.01, 6.92, 6.54, 6.79, 6.28, 5.44, 6.07, 6.02, 6.02, 6.64, 6.61, 6.26, 5.81, 5.36, 6.71, 7.15, 7.6, 7.6, 7.85, 8.06, 8.3, 8.72, 9.24, 9.35, 8.94, 8.94, 8.94, 8.77, 9.24, 9.06, 9.06, 8.99, 8.49, -11.18, -8.0, -0.0, -0.0, 1.19, 1.08, -0.0, -0.0, -0.0, -0.0, -0.0, -0.0, -0.0, -0.0, 8.53, 8.53, 8.53, 8.85, 8.49, 8.85, 9.17, 9.17, 9.13, 9.48, 9.8, 10.13, 10.46, 10.12, 9.8, 9.8, 9.8, 10.13, 10.77, 11.1, 11.1, 11.1, 11.72, 11.72, 11.72, 12.05, 11.69, 11.69, 11.09, 10.47, 10.18, 10.19, 9.9, 9.92, 9.92, 9.57, 9.21, 9.4, 9.02, 9.2, 9.2, 8.82, 8.82, 8.54, 8.15, 7.61, 7.87, 7.48, 7.48, 7.08, 7.2, 7.2, 6.92, 6.94, 6.54, 6.7, 5.86, 5.86, 5.75, 6.02, 6.45, 6.61, 6.58, 6.07, 5.81, 4.92, 6.71, 6.71, 6.71, 6.94, 7.12, 7.76, 8.21, 8.05, 9.06, 9.24, 8.94, 8.94, 8.9, 9.24, 9.24, 9.24, 9.24, 7.98, -11.2, -7.27, -1.84, -0.0, -0.0, 1.05, 1.19, -0.0, -0.0, -0.0, -1.05, -0.96, -0.96, -0.96, 8.53, 8.53, 8.53, 8.53, 8.49, 8.85, 8.85, 9.17, 8.82, 9.48, 9.8, 10.13, 10.12, 9.8, 9.48, 9.8, 10.13, 10.13, 10.77, 10.77, 10.77, 10.77, 11.72, 11.72, 11.72, 11.69, 11.69, 11.09, 11.09, 10.47, 10.18, 9.9, 9.9, 9.56, 9.92, 9.57, 9.21, 9.21, 9.09, 8.73, 8.93, 8.55, 8.82, 8.27, 8.27, 8.0, 7.61, 7.23, 7.48, 7.08, 6.95, 7.2, 7.33, 6.94, 6.94, 6.4, 6.0, 6.28, 6.28, 6.16, 6.45, 6.36, 6.23, 6.51, 5.51, 4.92, 7.15, 6.71, 6.71, 7.15, 7.54, 7.63, 7.76, 7.2, 8.4, 8.72, 8.77, 8.94, 8.94, 8.94, 9.35, 9.35, 9.35, -0.0, -10.73, -7.9, -3.97, -1.27, -0.0, -0.0, -0.0, -0.0, -0.0, -0.0, -1.05, -1.14, -1.14, -1.14, 8.16, 8.16, 8.53, 8.53, 8.49, 8.49, 8.85, 9.17, 8.82, 9.48, 9.8, 9.8, 9.8, 9.8, 9.8, 9.8, 10.13, 10.13, 10.43, 10.77, 10.77, 10.77, 11.72, 11.72, 11.72, 11.36, 11.69, 11.09, 10.82, 10.18, 10.18, 9.9, 9.9, 9.56, 9.23, 9.27, 9.57, 9.21, 9.09, 9.09, 8.73, 8.55, 8.55, 8.0, 8.27, 7.72, 7.61, 7.61, 7.23, 7.48, 7.34, 6.95, 7.2, 7.03, 6.94, 6.94, 6.4, 6.0, 6.0, 6.16, 6.16, 6.36, 6.36, 6.0, 5.94, 5.09, 4.92, 4.92, 7.15, 7.15, 7.55, 8.0, 8.0, 7.6, 7.15, 7.76, 8.33, 8.9, 8.94, 8.94, 8.94, 8.94, 7.6, -10.28, -11.46, -8.58, -5.37, -2.48, -1.27, -0.0, -0.0, -0.0, -0.0, -1.19, -2.2, -1.99, -1.99, -1.99, 8.16, 8.16, 8.53, 8.53, 8.19, 8.49, 8.85, 9.17, 8.82, 9.48, 9.48, 9.48, 9.48, 9.8, 9.48, 9.8, 10.13, 10.13, 10.13, 10.77, 10.77, 10.77, 10.77, 11.36, 11.36, 11.36, 11.32, 11.09, 10.82, 10.18, 9.53, 9.9, 9.56, 9.56, 9.23, 9.62, 9.27, 9.21, 9.21, 9.09, 8.73, 8.73, 8.37, 8.0, 8.27, 7.72, 7.72, 7.61, 7.61, 7.07, 7.07, 7.34, 6.9, 7.03, 7.03, 6.64, 6.8, 6.4, 6.4, 6.21, 6.16, 6.0, 6.0, 6.0, 5.58, 5.6, 5.81, 5.36, 7.15, 7.52, 7.55, 8.05, 8.49, 8.45, 8.33, 8.29, 8.05, 8.49, 8.94, 8.94, 8.94, 8.94, 7.55, 8.05, -10.28, -8.72, -3.48, -3.48, -2.23, -0.98, -1.08, -0.98, -1.08, -1.08, -2.2, -1.83, -1.83, -1.83, 7.85, 7.85, 8.53, 8.53, 8.19, 8.19, 8.85, 9.17, 8.52, 9.17, 9.17, 9.17, 9.17, 9.17, 9.48, 9.8, 10.13, 10.13, 10.13, 10.13, 10.77, 10.77, 10.77, 10.77, 11.36, 11.36, 10.76, 11.09, 10.47, 10.18, 9.53, 9.9, 9.56, 9.23, 9.62, 9.62, 9.27, 9.27, 9.21, 8.87, 8.79, 8.73, 8.5, 8.15, 8.45, 8.09, 7.72, 7.72, 7.35, 7.44, 7.07, 7.34, 6.9, 6.7, 7.03, 6.64, 6.44, 6.07, 6.07, 6.21, 6.21, 6.0, 6.0, 6.13, 5.95, 5.6, 5.2, 5.81, 5.81, 7.5, 7.98, 8.05, 8.49, 8.49, 8.9, 8.9, 8.49, 8.49, 8.94, 8.49, 8.49, 8.33, 8.56, 5.7, -7.63, -7.74, -4.22, -3.79, -3.48, -2.0, -1.8, -1.3, -3.0, -2.4, -2.4, -2.4, -2.4, -2.4, 7.85, 7.85, 8.22, 8.53, 7.88, 8.19, 8.53, 8.52, 8.52, 8.52, 9.17, 9.17, 9.17, 9.17, 9.48, 9.8, 10.13, 10.13, 10.13, 10.13, 10.13, 10.77, 10.77, 10.77, 11.1, 10.76, 10.76, 10.41, 10.47, 10.18, 9.53, 9.9, 9.56, 9.56, 9.23, 9.23, 9.27, 8.57, 8.57, 8.87, 8.86, 8.86, 8.5, 8.15, 8.15, 8.15, 8.09, 8.09, 7.72, 7.15, 7.44, 7.17, 6.96, 6.9, 6.7, 6.7, 6.44, 6.44, 6.07, 5.82, 6.21, 5.95, 6.4, 6.13, 5.72, 4.74, 5.6, 5.2, 5.2, 7.06, 7.97, 7.98, 7.6, 8.05, 8.05, 8.49, 8.45, 8.49, 8.45, 8.49, 8.45, 8.33, 8.99, 8.06, 5.06, -7.89, -4.8, -4.29, -4.29, -2.68, -2.0, -3.0, -2.32, -2.2, -3.22, -3.22, -3.22, -3.22, 7.85, 7.85, 7.85, 7.88, 7.88, 8.19, 8.53, 8.21, 8.21, 8.52, 8.52, 9.17, 9.17, 9.17, 9.48, 9.8, 9.8, 10.13, 10.13, 10.13, 10.13, 10.46, 10.77, 10.77, 10.43, 10.76, 10.76, 10.41, 10.47, 9.84, 9.53, 9.17, 9.56, 9.56, 8.85, 8.85, 8.53, 8.9, 8.57, 8.87, 8.86, 8.86, 8.5, 8.5, 8.15, 8.15, 7.8, 7.8, 7.72, 7.51, 7.15, 6.87, 6.96, 6.96, 6.7, 6.7, 6.08, 6.44, 6.07, 5.82, 5.82, 5.95, 5.95, 6.32, 5.37, 5.06, 4.43, 4.43, 4.43, 7.47, 7.97, 7.6, 7.15, 7.15, 7.6, 8.05, 8.05, 8.05, 8.44, 8.49, 8.45, 8.77, 9.21, 9.24, 6.64, -7.81, -7.21, -5.4, -4.98, -3.58, -3.16, -3.22, -2.53, -3.22, -3.49, -4.29, -4.29, -4.29, 7.55, 7.55, 7.55, 7.88, 7.88, 7.88, 7.56, 8.21, 8.21, 8.85, 8.52, 9.17, 9.17, 9.17, 9.17, 9.48, 9.8, 9.48, 10.13, 10.13, 10.13, 10.46, 10.77, 10.77, 10.43, 10.43, 10.41, 10.41, 10.13, 9.84, 9.53, 9.17, 9.23, 9.23, 8.85, 8.85, 8.53, 8.53, 8.9, 8.57, 8.93, 8.86, 8.86, 8.5, 8.5, 8.15, 8.15, 7.8, 7.8, 7.21, 7.51, 7.23, 6.63, 6.96, 6.35, 6.7, 6.44, 6.08, 6.08, 6.18, 6.18, 6.18, 6.32, 6.32, 5.93, 4.29, 3.72, 4.74, 4.74, 6.58, 6.71, 8.49, 7.6, 7.15, 7.15, 7.6, 8.05, 8.05, 8.45, 8.45, 8.9, 8.9, 8.9, 9.35, 7.52, -8.4, -9.39, -6.61, -6.14, -4.82, -4.57, -3.93, -4.65, -5.37, -6.01, -6.32, -6.32, -6.32, 7.55, 7.55, 7.55, 7.58, 7.58, 7.88, 7.56, 7.85, 8.53, 8.85, 8.52, 8.85, 9.17, 9.17, 9.17, 9.48, 9.48, 9.48, 9.48, 10.13, 9.8, 9.8, 10.12, 10.77, 10.43, 10.09, 10.41, 10.13, 9.8, 9.84, 9.53, 9.17, 9.23, 8.85, 8.85, 8.85, 8.53, 8.53, 8.22, 8.93, 8.93, 8.59, 8.86, 8.19, 8.19, 8.24, 8.24, 7.9, 7.9, 7.56, 7.21, 6.92, 6.98, 6.63, 6.7, 6.35, 6.06, 6.44, 6.44, 5.77, 5.77, 6.18, 5.84, 6.7, 6.28, 5.37, 3.97, 5.06, 5.06, 6.51, 7.15, 8.94, 7.94, 8.49, 7.15, 7.6, 8.05, 8.49, 8.49, 8.49, 8.9, 8.94, 8.94, 9.35, 7.54, 8.94, -9.26, -7.5, -6.71, -6.71, -5.29, -6.36, -7.47, -7.67, -6.98, -6.01, -6.01, -6.01, 7.55, 7.55, 7.22, 7.58, 7.58, 7.88, 7.88, 8.19, 8.53, 8.52, 8.52, 8.85, 9.17, 9.17, 9.17, 9.48, 9.48, 9.48, 9.48, 9.8, 9.8, 9.8, 9.8, 9.8, 10.43, 10.09, 10.09, 10.13, 9.8, 9.5, 9.53, 8.85, 9.23, 8.85, 8.85, 8.85, 8.53, 8.53, 8.22, 8.6, 8.24, 8.24, 8.24, 8.19, 8.24, 7.91, 8.24, 8.24, 7.9, 7.56, 6.95, 7.27, 6.65, 6.98, 6.35, 6.7, 6.06, 6.06, 6.11, 6.11, 6.11, 6.55, 6.18, 6.18, 6.18, 5.37, 4.29, 3.97, 3.2, 6.0, 6.79, 7.15, 6.71, 8.94, 7.15, 7.15, 8.05, 8.49, 8.49, 8.49, 8.49, 8.94, 8.94, 8.49, 8.44, 8.49, -7.44, -8.06, -7.5, -7.15, -7.15, -7.94, -8.06, -7.6, -6.52, -6.52, -6.52, -6.52, 7.55, 7.55, 7.22, 7.58, 7.58, 7.88, 7.88, 8.19, 8.53, 8.52, 8.52, 8.85, 9.17, 9.17, 9.17, 9.48, 9.48, 9.48, 9.48, 9.8, 9.8, 9.8, 9.8, 9.8, 10.43, 10.09, 10.09, 10.13, 9.8, 9.5, 9.53, 8.85, 9.23, 8.85, 8.85, 8.85, 8.53, 8.53, 8.22, 8.6, 8.24, 8.24, 8.24, 8.19, 8.24, 7.91, 8.24, 8.24, 7.9, 7.56, 6.95, 7.27, 6.65, 6.98, 6.35, 6.7, 6.06, 6.06, 6.11, 6.11, 6.11, 6.55, 6.18, 6.18, 6.18, 5.37, 4.29, 3.97, 3.2, 6.0, 6.79, 7.15, 6.71, 8.94, 7.15, 7.15, 8.05, 8.49, 8.49, 8.49, 8.49, 8.49, 8.49, 8.49, 8.45, 8.0, 8.49, -8.49, -8.49, -7.6, -7.97, -8.17, -7.6, -7.07, -6.52, -6.52, -6.52, -6.52]}, {"header": {"dx": 0.06612293990616946, "dy": 0.0552356325346848, "nx": 98, "ny": 59, "la1": 35.046912555036876, "la2": 31.78801023549047, "lo1": -121.43107172385933, "lo2": -114.95102361305473, "refTime": "2026040822", "parameterCategory": 1, "parameterNumber": 3}, "data": [-9.02, -9.02, -9.02, -9.37, -9.37, -8.31, -8.31, -8.58, -8.58, -8.51, -7.99, -6.4, -5.72, -3.39, -2.49, -1.76, -0.93, -1.84, -4.6, -8.77, -9.39, -9.39, -8.05, -7.15, -6.71, -6.71, -6.64, -6.64, -5.94, -5.94, -5.73, -5.26, -5.36, -5.36, -4.98, -5.21, -5.49, -5.37, -5.37, -5.24, -4.71, -5.46, -5.92, -6.63, -7.13, -7.36, -8.99, -9.62, -9.92, -7.54, -5.06, -3.53, -1.76, -0.85, 0.0, 0.85, 0.85, 1.69, 2.6, 2.6, 2.71, 3.82, 3.65, 3.81, 3.6, 3.6, 3.6, 2.83, 2.97, 3.39, 3.68, 2.39, 2.46, 1.4, 1.4, 1.2, 1.54, 0.0, 0.0, 0.0, 0.0, 0.0, -3.48, -3.48, -2.2, 0.0, 1.83, 2.8, 5.49, 7.53, 8.29, 8.73, 8.91, 8.21, 7.44, 7.15, 6.64, 6.64, -9.02, -9.02, -9.02, -8.66, -9.37, -9.02, -8.58, -8.58, -8.85, -8.85, -7.6, -7.63, -5.2, -4.5, -3.68, -2.42, -2.49, -2.52, -4.2, -7.76, -10.73, -10.28, -9.39, -8.49, -7.15, -6.71, -6.64, -6.64, -6.45, -6.45, -6.61, -6.17, -6.26, -5.73, -5.94, -5.95, -6.55, -6.45, -6.79, -6.73, -6.95, -7.56, -8.54, -8.95, -9.77, -10.71, -11.0, -11.32, -9.92, -6.98, -5.57, -3.39, -2.49, -1.5, -0.75, 0.0, 0.0, 0.85, 0.89, 1.76, 1.84, 2.59, 2.7, 2.97, 2.69, 2.69, 2.54, 2.69, 2.97, 3.08, 2.19, 1.18, 0.0, 0.0, 0.0, 0.0, 0.0, 0.0, 0.0, 0.0, 0.0, 0.0, -3.48, -3.48, -2.2, 0.0, 1.83, 2.8, 5.49, 7.53, 8.29, 8.73, 8.91, 8.21, 7.44, 7.15, 6.64, 6.64, -9.02, -9.02, -9.02, -9.08, -9.37, -9.3, -9.3, -8.85, -8.76, -8.85, -7.4, -6.27, -6.24, -5.0, -4.5, -3.39, -3.29, -3.42, -3.67, -7.27, -9.54, -11.18, -11.18, -10.28, -8.94, -7.15, -7.1, -6.64, -7.1, -7.54, -7.54, -7.54, -7.15, -7.6, -6.16, -7.28, -7.2, -7.15, -7.76, -8.03, -8.93, -9.85, -11.47, -13.07, -13.91, -13.42, -12.71, -10.47, -8.2, -5.52, -4.6, -3.65, -2.59, -1.76, -1.54, -0.82, 0.0, 0.0, 0.0, 0.93, 0.93, 1.76, 1.84, 1.75, 2.44, 2.69, 1.84, 1.94, 1.93, 2.1, 2.0, 0.0, -1.33, -2.97, -1.75, 0.0, 0.0, 0.0, 0.0, 0.0, 3.0, 0.0, 0.0, 0.0, 2.0, 2.41, 3.35, 4.74, 6.6, 7.81, 10.04, 10.47, 9.4, 8.6, 7.51, 6.64, 6.18, 5.89, -9.02, -9.02, -9.73, -9.08, -9.37, -9.3, -9.58, -9.12, -8.76, -8.25, -7.4, -6.93, -6.84, -5.41, -5.0, -5.0, -4.87, -5.4, -4.17, -5.29, -8.4, -9.7, -11.62, -11.62, -10.73, -9.7, -7.54, -7.1, -7.15, -8.05, -8.49, -8.94, -8.94, -8.49, -8.06, -8.4, -8.54, -9.09, -10.04, -11.03, -12.98, -14.13, -14.47, -13.4, -12.33, -10.68, -7.78, -5.52, -4.78, -3.81, -3.32, -2.7, -1.84, -1.68, -0.85, -0.85, 0.0, 0.0, 0.0, 0.0, 0.89, 0.89, 1.84, 1.75, 1.75, 1.67, 1.75, 1.75, 1.76, 1.84, 1.98, 0.0, -5.4, -8.43, -6.32, -3.49, 0.0, 0.0, 0.0, 10.73, 2.6, 1.08, 2.73, 4.8, 5.94, 6.21, 6.6, 6.6, 7.53, 10.41, 11.71, 10.05, 8.8, 7.96, 6.64, 5.63, 5.36, 6.01, -9.02, -9.43, -9.73, -9.37, -9.37, -9.66, -9.58, -9.23, -8.76, -8.25, -7.82, -6.97, -7.48, -5.75, -4.8, -5.2, -5.51, -5.72, -5.72, -5.63, -8.24, -10.14, -10.58, -12.07, -11.18, -11.18, -9.83, -9.39, -9.39, -8.49, -8.94, -9.83, -11.62, -11.62, -11.09, -10.84, -10.88, -11.33, -13.81, -16.2, -16.14, -13.17, -10.75, -8.95, -8.3, -6.7, -5.14, -4.25, -3.36, -2.47, -1.68, -0.85, 0.0, 0.0, 0.0, 0.0, 0.0, 0.0, 0.0, 0.98, 0.98, 0.98, 1.84, 1.75, 1.75, 1.75, 1.67, 1.84, 1.84, 3.08, 3.47, 3.25, -9.17, -11.62, -7.63, -5.69, -2.28, 0.0, -0.0, 0.0, 0.0, 2.73, 4.98, 6.88, 7.53, 7.63, 7.6, 7.2, 8.8, 11.3, 10.84, 8.79, 8.0, 6.79, 5.63, 5.21, 5.1, 6.45, -9.02, -9.43, -9.73, -9.73, -9.37, -9.66, -9.58, -9.23, -9.23, -8.25, -7.54, -6.65, -7.18, -5.52, -4.62, -5.0, -5.86, -6.08, -6.7, -6.7, -8.85, -11.56, -12.83, -12.96, -12.07, -12.07, -12.07, -11.18, -10.73, -10.73, -9.35, -9.79, -10.14, -11.71, -13.01, -12.58, -12.18, -11.69, -15.38, -16.58, -14.03, -11.72, -9.26, -8.01, -6.56, -6.08, -5.0, -3.39, -2.49, -1.69, -0.85, 0.0, 0.0, 0.82, 0.82, 0.82, 0.82, 0.85, 0.89, 0.98, 0.98, 1.04, 1.94, 1.67, 1.75, 1.75, 1.84, 1.75, 1.75, 2.83, 4.36, 5.77, 6.94, -8.85, -8.22, 0.0, 2.12, 2.8, 0.0, -0.0, 5.81, 6.94, 6.79, 7.31, 7.74, 7.81, 7.37, 8.54, 10.09, 10.27, 8.79, 9.63, 6.55, 6.01, 5.63, 4.74, 6.01, 7.2, -9.02, -9.43, -9.43, -9.73, -9.66, -9.95, -9.58, -9.58, -9.23, -8.15, -6.98, -6.01, -6.83, -4.92, -4.72, -4.3, -5.06, -5.4, -6.7, -6.87, -7.93, -12.27, -14.51, -15.14, -14.75, -14.3, -15.2, -14.3, -13.41, -11.18, -10.73, -9.35, -9.24, -8.43, -10.2, -13.02, -13.28, -12.03, -11.99, -12.45, -13.44, -12.04, -11.72, -10.09, -9.13, -6.72, -6.31, -4.3, -3.39, -2.42, -1.18, -0.82, 0.0, 0.0, 0.0, 0.0, 0.0, 0.0, 0.0, 0.98, 1.09, 2.04, 1.94, 1.84, 1.67, 1.67, 0.89, 0.84, 0.84, 1.84, 3.3, 4.66, 6.01, 7.9, 9.66, 9.58, 4.43, 2.2, 4.66, 5.81, 5.94, 8.49, 9.39, 10.14, 10.6, 10.0, 9.97, 9.08, 9.6, 9.04, 9.63, 8.93, 6.18, 4.94, 4.5, 5.53, 6.91, 7.76, -9.1, -9.02, -9.73, -10.04, -9.95, -9.95, -9.58, -9.58, -8.96, -7.87, -6.98, -6.64, -7.27, -5.75, -5.86, -4.5, -5.4, -5.6, -6.21, -6.56, -6.94, -9.3, -10.58, -15.09, -15.39, -14.64, -15.2, -15.65, -14.64, -13.33, -12.07, -12.07, -11.87, -11.2, -9.43, -11.2, -11.85, -7.59, -6.95, -11.51, -12.66, -13.15, -14.71, -14.78, -12.36, -9.48, -6.86, -5.14, -5.14, -4.54, -2.59, -2.49, -1.76, -0.85, -0.85, 0.0, 0.0, 0.0, 0.0, 0.0, 1.04, 1.04, 0.89, 0.89, 0.89, 0.94, 0.0, 0.0, 0.0, 0.89, 1.95, 3.35, 3.7, 6.98, 8.94, 7.59, 4.83, 3.49, 5.2, 9.83, 10.58, 7.6, 9.54, 11.18, 11.45, 10.79, 10.04, 10.0, 9.55, 8.72, 8.8, 5.21, 5.37, 5.15, 5.15, 6.55, 8.0, 7.76, -9.4, -9.31, -9.73, -10.04, -9.95, -9.95, -9.58, -10.01, -8.69, -7.6, -6.98, -7.96, -10.55, -9.69, -8.37, -7.36, -7.36, -6.79, -6.43, -7.19, -7.51, -9.84, -10.79, -11.2, -11.13, -11.51, -9.83, -13.41, -15.49, -13.86, -13.86, -15.12, -14.9, -13.15, -10.8, -10.16, -9.6, 10.73, 9.83, 0.0, -12.52, -13.88, -13.39, -11.92, -9.42, -8.49, -8.22, -6.2, -5.46, -5.06, -4.8, -3.36, -3.25, -2.6, -1.69, -1.69, -1.69, -0.85, -0.85, 0.0, 0.0, 0.0, 0.0, 0.0, 0.0, 0.0, 0.0, -1.04, -1.0, 0.0, 0.0, 0.99, 1.33, 1.91, 2.6, 2.17, 1.49, 4.46, 9.2, 11.95, 12.96, 5.37, 2.26, 6.01, 9.39, 10.28, 10.28, 9.39, 7.21, 4.09, 3.48, 4.11, 4.43, 5.84, 6.18, 6.99, 8.0, 7.2, -9.7, -9.31, -10.04, -10.04, -9.95, -9.95, -10.01, -10.01, -9.09, -7.96, -7.91, -9.21, -9.57, -10.98, -10.25, -9.97, -10.58, -10.92, -10.12, -8.54, -8.85, -10.01, -11.99, -11.6, -10.46, -9.03, -8.38, -10.73, -14.75, -14.3, -14.22, -15.99, -15.05, -11.16, -5.4, -4.8, 0.0, 7.6, 8.49, 9.54, 9.6, -10.8, -9.6, -7.2, -6.11, -5.82, -6.24, -5.2, -4.72, -3.81, -3.32, -4.2, -3.36, -3.25, -3.25, -2.49, -2.49, -2.59, -1.84, -2.04, -1.05, 0.0, 0.0, 2.46, 2.17, 0.0, 0.0, -2.44, -2.54, -2.83, -2.06, -1.09, 0.0, 0.0, 0.0, 0.0, 0.0, 2.69, 9.39, 11.62, 12.79, 12.96, -0.0, -0.0, -0.0, -0.0, -0.0, 5.81, 5.36, 3.16, 3.6, 5.2, 5.81, 6.4, 6.6, 7.2, 7.6, 7.2, -9.7, -9.73, -10.04, -10.04, -10.04, -9.95, -10.01, -9.71, -8.81, -7.96, -8.2, -9.5, -9.83, -9.43, -9.62, -9.62, -11.96, -11.76, -10.75, -9.62, -11.13, -12.36, -13.99, -11.99, -9.08, -4.96, -7.27, -7.27, -11.6, -14.03, -13.23, -12.96, 8.22, 9.3, 7.26, 5.2, 8.94, 9.13, 5.95, 5.84, 5.37, 4.0, -5.9, -8.05, -6.63, -4.95, -3.6, -2.54, -1.75, -1.84, -2.57, -2.7, -2.47, -3.36, -3.51, -4.13, -4.44, -4.4, -4.56, -3.14, 0.0, 3.91, 6.87, 7.13, 5.1, 3.32, 0.85, -2.7, -5.1, -5.53, -4.66, -3.61, -2.82, -1.58, -1.76, -3.39, -4.2, 6.64, 9.11, 11.18, 11.84, 12.27, 11.62, -0.0, -3.6, -4.22, -3.8, -0.0, -0.0, 4.92, 4.47, 4.47, 5.36, 5.94, 6.6, 6.99, 7.37, 6.18, -10.12, -9.73, -9.73, -10.04, -10.04, -9.66, -10.01, -9.71, -8.81, -8.24, -8.17, -9.48, -10.12, -9.42, -7.29, -5.6, -5.02, -6.4, -7.0, -6.81, -5.91, -4.24, -4.17, -7.44, 0.0, 6.71, 6.26, 3.58, 3.48, 0.0, 0.0, 5.58, 6.36, 5.2, 8.82, 8.03, 7.9, 6.18, 5.15, 5.44, 3.99, 3.6, 0.0, -4.2, -6.01, -4.58, -4.37, -2.99, -1.4, -1.4, -1.75, -1.67, -1.75, -1.75, -1.67, -1.67, -2.83, -5.46, -7.21, -4.2, 8.77, 8.67, 8.58, 7.81, 7.76, 6.53, 5.06, 0.99, -6.45, -7.2, -7.28, -6.69, -4.8, -4.05, -5.7, -5.75, 0.0, 9.83, 7.27, 11.03, 11.18, 9.83, 9.83, 6.64, -0.0, -3.8, -6.32, -6.95, -0.0, 2.26, 3.22, 3.72, 4.02, 5.26, 5.75, 5.93, 5.93, 5.93, -10.12, -9.73, -9.73, -10.04, -10.04, -9.66, -9.71, -9.42, -9.09, -8.53, -8.53, -9.46, -9.76, -9.71, -8.58, -7.05, -4.74, -3.41, -2.9, -2.9, -2.26, -1.13, -1.12, -0.56, 0.0, 4.92, 3.16, 3.16, 3.48, 3.82, 4.77, 5.6, 5.37, 4.98, 4.98, 5.58, 5.15, 4.87, 4.22, 3.17, 3.17, 1.96, 0.0, -1.75, -4.71, -5.69, -4.83, -3.15, -3.15, -1.32, -1.55, -0.8, -0.85, 1.05, 4.2, 5.36, 3.4, -3.6, -7.2, 6.79, 8.94, 8.77, 8.17, 7.82, 7.81, 8.06, 8.32, 7.15, -3.4, -7.54, -7.37, -5.84, -5.37, -6.18, -6.64, 0.0, 11.28, 10.73, 10.18, 4.8, 6.01, 7.2, 9.2, 11.18, 8.05, -0.0, -3.39, -3.25, -0.0, -0.0, -0.0, 1.7, 4.66, 5.36, 6.0, 5.36, 4.74, 5.72, -10.12, -9.73, -9.73, -9.73, -10.04, -9.66, -10.07, -9.42, -9.09, -8.81, -8.81, -9.42, -9.71, -10.01, -9.61, -8.47, -6.75, -5.18, -3.98, -2.92, -2.35, -1.7, -1.13, -1.11, -0.55, -0.96, 0.0, 4.47, 4.11, 4.43, 4.66, 5.64, 6.4, 4.89, 5.24, 5.58, 4.74, 4.22, 2.99, 2.09, 0.94, 0.0, 0.0, 0.0, -4.71, -4.46, -2.49, 0.0, 0.0, 0.0, 0.0, 0.0, 2.6, 10.4, 9.55, 6.55, 4.37, 0.0, 0.0, 6.57, 8.94, 9.29, 8.63, 8.4, 8.17, 8.4, 8.55, 8.4, 6.8, -6.26, -6.71, -6.45, -6.45, -5.94, 7.6, 10.14, 9.46, 7.81, 8.72, 8.94, -0.0, -0.0, 8.22, 11.87, 9.83, 9.97, 9.3, 5.7, 3.4, -0.0, -0.0, -0.0, 4.11, 6.26, 5.6, 4.74, 5.21, 6.51, -10.12, -9.73, -9.73, -9.73, -9.73, -9.66, -9.66, -9.71, -9.09, -9.09, -9.09, -9.09, -9.71, -10.01, -9.88, -9.49, -8.19, -6.52, -5.3, -4.77, -4.1, -3.42, -2.87, -2.31, -2.24, -3.25, -2.66, 0.0, 0.0, 2.4, 4.4, 3.9, 6.0, 5.72, 5.72, 6.52, 6.01, 3.77, 2.69, 0.0, 0.0, 0.0, 0.0, 0.0, 0.0, 0.0, 7.21, 6.0, 5.06, 5.9, 3.98, 3.82, 6.95, 7.06, 6.4, 5.69, 2.82, 1.63, 3.33, 8.06, 8.45, 8.06, 7.6, 8.0, 8.4, 8.4, 8.63, 7.81, 6.64, 2.26, -6.61, -7.08, -5.37, 7.89, 8.49, 7.85, 7.53, 6.55, 6.18, 6.44, 7.6, 0.0, 9.39, 10.28, 9.83, 10.28, 10.58, 9.55, 7.06, 6.32, -0.0, -0.0, -0.0, 0.0, 7.15, 6.51, 5.7, 5.7, -10.12, -9.73, -9.73, -9.73, -9.73, -9.37, -9.37, -9.71, -9.38, -9.09, -9.09, -9.38, -9.38, -9.66, -10.23, -9.81, -8.47, -7.24, -6.52, -5.81, -4.6, -4.07, -3.52, -2.85, -2.26, -2.1, -2.13, 0.0, 0.0, 0.0, 0.0, 2.15, 3.07, 5.72, 6.13, 5.82, 4.87, 2.99, 1.32, 0.0, 0.0, 0.0, 0.0, 1.25, 2.66, 7.47, 8.05, 7.94, 6.52, 5.37, 3.91, 4.56, 5.37, 5.72, 4.74, 3.0, 1.49, 1.58, 4.37, 7.44, 7.2, 6.9, 6.08, 6.08, 6.08, 6.44, 5.49, 5.59, 5.21, 3.15, -4.29, -8.94, 9.39, 8.94, 8.77, 8.17, 7.58, 6.79, 6.32, 6.52, 6.32, 7.2, 6.61, 7.6, 8.0, 7.85, 8.05, 8.38, 7.06, 6.26, 6.32, -0.0, 6.71, 7.15, 7.6, 6.61, 5.73, 5.73, -10.12, -10.12, -9.73, -9.43, -9.73, -9.37, -9.37, -9.71, -9.38, -9.38, -9.38, -9.06, -9.06, -9.66, -9.16, -9.09, -8.53, -7.28, -6.56, -5.85, -5.3, -4.6, -3.52, -2.38, -1.13, -0.57, -0.72, -0.74, 0.0, -0.56, -0.59, 0.82, 3.16, 5.72, 5.75, 5.82, 4.74, 3.2, 1.32, 0.0, 0.0, 1.84, 3.91, 4.16, 6.01, 7.6, 8.06, 6.9, 5.69, 4.14, 3.8, 3.8, 5.31, 4.14, 3.91, 1.49, 1.32, 2.69, 4.6, 6.64, 5.59, 6.01, 4.56, 4.29, 4.29, 3.22, 4.29, 4.83, 5.59, 4.14, 2.06, 6.99, 9.49, 9.24, 8.8, 7.81, 7.06, 7.27, 7.27, 7.21, 6.87, 7.6, 7.81, 7.56, 8.0, 7.85, 7.85, 6.17, 5.73, 7.15, 9.83, 7.6, 7.15, 8.05, 8.41, 6.94, 5.59, 5.59, -9.7, -10.12, -9.73, -9.43, -9.43, -9.37, -9.37, -9.42, -9.38, -9.38, -9.38, -9.06, -9.06, -9.33, -8.9, -8.18, -7.82, -7.28, -6.36, -5.18, -4.66, -4.1, -3.44, -1.7, 0.0, 0.58, -0.67, -2.13, -2.72, -2.52, -2.11, 0.0, 2.2, 2.86, 3.32, 5.4, 4.8, 1.98, 1.52, 1.63, 4.29, 5.37, 5.69, 6.01, 6.32, 7.44, 6.98, 6.98, 5.59, 4.0, 3.52, 4.0, 4.0, 3.8, 2.54, 2.54, 1.4, 2.83, 4.6, 5.59, 4.6, 4.37, 2.99, 2.82, 1.4, 1.03, 0.89, 1.4, 2.99, 4.37, 5.46, 7.68, 8.38, 8.02, 7.27, 6.04, 6.18, 6.95, 7.47, 6.91, 6.99, 7.37, 8.67, 8.77, 8.29, 8.29, 8.56, 7.15, 6.64, 7.6, 9.26, 7.94, 7.15, 8.44, 8.43, 6.88, 6.02, 6.02, -9.7, -9.7, -9.43, -9.43, -9.43, -9.08, -9.37, -9.42, -9.71, -9.38, -9.38, -9.06, -9.06, -9.06, -8.96, -9.52, -7.93, -7.82, -6.43, -4.58, -3.47, -3.42, -4.01, -3.13, -1.67, -1.17, -2.28, -4.52, -4.71, -4.17, -2.82, 0.0, 1.98, 1.98, 3.82, 4.02, 3.16, 0.0, 1.32, 1.58, 2.82, 4.22, 4.56, 5.37, 6.01, 6.01, 5.59, 4.96, 4.0, 3.52, 2.46, 3.52, 4.0, 3.8, 3.8, 2.69, 2.69, 4.6, 4.6, 4.0, 2.83, 2.69, 2.54, 0.83, 0.95, 0.0, 0.0, 0.0, 0.94, 2.83, 4.23, 6.0, 6.08, 5.4, 4.3, 3.51, 3.99, 6.11, 7.28, 7.2, 7.76, 8.79, 8.73, 8.77, 9.21, 8.77, 9.85, 10.7, 11.18, 9.76, 8.05, 8.49, 8.05, 8.94, 8.41, 7.21, 6.79, 6.79, -9.7, -9.7, -9.43, -9.43, -9.43, -9.08, -9.37, -9.42, -9.71, -9.38, -9.38, -9.06, -9.06, -9.06, -9.06, -8.38, -8.18, -7.93, -7.49, -5.86, -5.83, -5.14, -5.38, -7.2, -7.45, -5.91, -6.09, -6.53, -7.11, -3.53, 0.0, 0.0, 0.0, 2.23, 2.53, 3.2, 0.0, 0.0, 0.0, 0.0, 1.63, 2.35, 2.47, 3.63, 3.72, 4.37, 3.8, 2.83, 2.83, 2.46, 2.46, 3.8, 3.8, 4.37, 3.77, 3.99, 4.0, 4.26, 3.8, 2.58, 1.2, 1.4, 0.0, 0.0, 0.0, 0.0, 0.0, 0.0, 0.0, 0.85, 1.76, 2.61, 2.63, 0.92, 0.0, 0.0, 2.71, 7.27, 6.99, 6.99, 6.99, 7.95, 8.73, 8.73, 8.48, 8.14, 7.71, 7.71, 10.96, 8.94, 7.52, 8.85, 9.29, 8.94, 8.85, 8.48, 7.63, 7.63, -9.4, -9.7, -9.43, -9.43, -9.43, -9.08, -9.37, -9.42, -9.71, -9.38, -9.38, -9.06, -9.06, -9.06, -9.33, -8.58, -8.58, -7.99, -7.82, -9.11, -9.0, -7.2, -7.47, -8.12, -8.9, -7.39, -6.4, -6.85, -3.96, 9.6, 7.6, 4.43, 2.2, 1.74, 1.98, 2.23, 1.41, 0.0, 0.0, 0.0, 0.83, 1.84, 1.98, 2.99, 3.22, 3.6, 2.99, 2.83, 1.2, 1.2, 2.54, 4.14, 5.03, 5.03, 4.14, 3.77, 4.94, 4.5, 2.58, 0.0, 0.0, 0.0, 0.0, 0.0, 0.0, 0.0, 0.0, 0.0, 0.0, 0.85, 1.76, 1.58, 0.0, -1.83, -3.96, -3.82, 8.22, 9.58, 8.4, 6.99, 6.99, 7.95, 8.67, 8.14, 8.48, 8.06, 8.48, 8.14, 7.98, 7.55, 8.41, 9.33, 9.55, 7.5, 8.05, 8.38, 7.31, 7.31, -9.4, -9.4, -9.43, -9.43, -9.43, -9.08, -9.08, -9.42, -9.71, -9.38, -9.38, -9.06, -9.06, -8.75, -8.75, -8.58, -8.28, -7.64, -8.42, -8.96, -8.93, -7.5, -6.7, -7.6, -9.02, -8.16, -6.87, -4.66, 0.0, 2.4, 3.16, 2.84, 2.23, 2.23, 2.0, 2.2, 2.2, 2.4, 1.99, 1.84, 1.84, 1.84, 1.99, 2.4, 3.48, 2.76, 1.67, 0.0, 0.0, 2.4, 4.56, 5.37, 5.37, 5.37, 4.56, 4.83, 4.68, 3.8, 1.26, 0.0, -0.89, -1.67, -1.75, -1.75, -1.84, -0.89, -0.95, 0.0, 1.73, 2.83, 3.87, 4.72, 3.11, -4.02, -7.37, 0.0, 12.07, 12.07, 11.02, 8.6, 6.99, 7.53, 8.73, 8.73, 8.77, 8.77, 8.56, 8.99, 8.4, 8.99, 10.73, 10.14, 9.55, 7.45, 5.36, 6.71, 7.06, 7.06, -9.4, -9.4, -9.4, -9.43, -9.43, -9.08, -9.08, -9.42, -9.71, -9.38, -9.66, -9.33, -9.06, -8.75, -8.75, -8.58, -8.28, -7.8, -8.08, -8.33, -8.28, -6.16, -5.09, -4.73, -6.17, -7.11, -7.11, -5.15, -2.0, 0.0, 0.0, 1.41, 2.2, 2.2, 2.2, 2.76, 2.99, 2.99, 2.99, 2.6, 2.4, 2.4, 2.76, 2.2, 2.73, 2.95, 1.58, 0.0, 1.4, 4.29, 6.52, 5.37, 5.37, 4.56, 4.56, 4.56, 4.58, 3.6, 2.83, 0.84, -0.89, -2.54, -3.6, -3.6, -3.4, -1.84, 0.0, 1.98, 3.55, 4.26, 4.2, 5.7, -0.0, -3.72, -4.8, -0.0, 7.9, 10.6, 10.08, 9.39, 6.64, 7.98, 8.44, 8.9, 9.21, 9.21, 9.21, 8.99, 8.72, 9.38, 11.21, 11.06, 10.52, 4.98, 4.85, 5.36, 6.26, 6.26, -9.4, -9.4, -9.8, -9.43, -9.43, -9.08, -9.08, -9.42, -9.71, -9.38, -9.66, -9.66, -9.33, -9.06, -9.02, -8.58, -8.28, -8.04, -7.8, -8.33, -7.54, -6.29, -4.7, -4.03, -3.81, -5.1, -5.62, -5.63, -3.18, -1.09, 0.0, 0.0, 1.4, 2.32, 2.32, 1.98, 3.0, 3.0, 2.8, 3.47, 3.22, 2.98, 2.2, 1.83, 2.48, 1.08, 0.0, 1.49, 4.56, 6.44, 7.28, 5.69, 4.56, 4.56, 4.56, 4.29, 3.72, 3.55, 3.8, 2.99, 0.0, -1.96, -4.22, -3.97, -2.8, 1.05, 5.06, 6.63, 5.37, 4.26, 2.83, 2.83, 6.0, -3.22, -4.11, -0.0, 5.37, 7.81, 8.48, 7.5, 6.71, 6.71, 7.15, 7.6, 8.89, 8.77, 9.21, 8.3, 8.21, 7.81, 7.96, 6.8, 5.73, 4.85, 5.75, 5.81, 5.81, 5.81, -9.4, -9.4, -9.8, -9.43, -9.13, -9.13, -9.08, -9.42, -9.42, -9.38, -9.66, -9.66, -9.33, -9.33, -9.02, -9.02, -8.04, -8.04, -7.8, -8.33, -7.82, -7.28, -5.88, -5.34, -4.52, -4.03, -4.73, -5.15, -4.65, -2.42, -1.14, 0.0, 0.0, 1.25, 2.26, 2.26, 2.09, 2.99, 3.2, 2.8, 3.22, 2.98, 2.73, 2.2, 0.96, 0.0, 0.0, 1.84, 4.16, 5.06, 5.15, 6.01, 4.56, 4.56, 4.56, 4.29, 2.66, 2.8, 2.82, 4.14, 2.82, 1.84, 0.0, 0.0, 2.98, 6.57, 7.76, 6.79, 5.53, 1.84, 0.0, 0.0, 1.39, 0.0, -4.43, -0.0, 2.99, 5.36, 7.2, 6.4, 6.36, 6.02, 6.21, 6.71, 8.05, 8.0, 8.29, 8.17, 7.82, 7.07, 7.2, 6.44, 6.28, 6.26, 5.75, 5.81, 5.36, 5.36, -9.4, -9.4, -9.48, -9.48, -9.13, -9.13, -9.43, -9.42, -9.71, -9.38, -9.38, -9.66, -9.33, -9.61, -9.28, -9.02, -8.04, -8.04, -8.04, -8.28, -8.05, -7.76, -7.28, -6.33, -5.85, -5.18, -4.74, -4.86, -4.81, -2.52, -1.23, 0.0, 0.0, 1.11, 1.14, 1.14, 2.21, 2.21, 2.99, 3.2, 2.8, 2.6, 2.11, 2.11, 1.7, 0.0, 0.0, 0.0, 2.26, 3.2, 4.47, 3.91, 4.56, 6.08, 5.37, 4.56, 2.66, 3.2, 3.2, 4.14, 4.37, 3.8, 2.64, 3.91, 6.16, 8.06, 7.82, 7.15, 4.26, 1.75, 0.0, 0.0, 0.0, 0.0, -5.06, -3.15, -0.0, 3.0, 4.47, 5.93, 5.95, 5.75, 5.59, 6.21, 6.71, 7.6, 7.85, 7.76, 7.2, 7.03, 7.2, 6.07, 6.28, 6.65, 7.15, 6.71, 5.36, 5.36, -9.1, -9.1, -9.48, -9.48, -9.13, -9.43, -9.43, -9.37, -9.71, -9.71, -9.38, -9.66, -9.33, -9.61, -9.28, -9.02, -8.04, -8.04, -8.04, -7.82, -8.05, -8.05, -7.28, -6.36, -6.33, -5.85, -5.21, -4.98, -4.65, -3.97, -2.19, -0.93, 0.0, 0.0, 0.0, 0.0, 0.0, 0.0, 1.05, 1.07, 2.26, 1.98, 2.29, 2.11, 1.41, 0.0, -0.96, -1.03, 0.0, 1.32, 4.02, 4.43, 4.11, 3.84, 4.43, 3.72, 2.82, 3.2, 4.19, 3.72, 2.69, 2.54, 2.83, 4.58, 8.0, 7.76, 7.82, 5.1, 3.45, 1.84, 0.85, 0.0, 0.0, 0.0, 0.0, -7.6, -1.18, -0.0, 2.26, 4.75, 5.06, 4.98, 5.09, 5.75, 6.21, 6.71, 7.37, 7.2, 7.2, 7.2, 6.8, 6.8, 7.37, 7.98, 8.05, 7.15, 6.61, 6.61, -9.1, -9.1, -9.48, -9.48, -9.13, -9.43, -9.43, -9.37, -10.07, -9.71, -9.38, -9.66, -9.66, -9.61, -9.61, -9.28, -8.46, -8.04, -8.28, -8.05, -8.05, -7.82, -7.54, -7.28, -6.36, -6.06, -5.88, -5.87, -5.8, -4.64, -3.82, -1.69, -1.54, -0.81, 0.0, 0.0, 0.0, 0.0, 0.0, 1.14, 1.25, 1.1, 1.6, 1.6, 0.78, 0.0, -2.12, -2.49, -1.63, 1.52, 3.76, 4.11, 3.79, 3.48, 2.95, 3.22, 3.4, 4.29, 4.43, 3.72, 1.96, 0.89, 0.89, 4.87, 8.17, 8.54, 5.89, 4.34, 2.57, 0.89, 0.0, 0.0, 0.0, 0.0, 0.0, 0.0, 0.0, -0.0, -0.0, 1.96, 3.45, 4.11, 5.09, 4.38, 5.36, 5.81, 6.51, 7.12, 7.12, 6.99, 6.99, 6.99, 7.53, 6.79, 7.81, 7.97, 7.52, 7.52, -9.1, -9.1, -9.48, -9.48, -9.13, -9.43, -9.43, -9.37, -10.07, -9.71, -9.38, -9.66, -9.66, -9.61, -9.61, -9.28, -9.02, -8.04, -8.28, -8.53, -8.05, -7.82, -7.54, -7.32, -6.6, -6.6, -6.1, -5.87, -6.31, -5.4, -3.82, -3.25, -2.28, -1.47, -0.81, -0.81, 0.0, 0.0, 0.0, 0.0, 0.0, 0.0, 0.96, 1.1, 1.96, 0.89, -2.6, -6.07, -6.26, 2.12, 4.43, 3.79, 3.07, 2.95, 2.2, 1.66, 3.0, 5.06, 3.91, 3.0, 0.95, 0.0, 1.84, 5.69, 8.21, 6.73, 6.18, 4.34, 0.85, 0.0, -1.75, -1.84, -1.75, -0.89, 0.0, 0.89, 3.45, 4.98, 1.32, -0.0, 2.16, 4.11, 6.26, 4.92, 4.47, 4.92, 5.75, 6.45, 6.16, 6.0, 5.24, 6.4, 6.16, 6.7, 7.53, 8.24, 8.41, 8.41, -9.1, -9.1, -9.48, -9.48, -9.13, -9.43, -9.43, -9.37, -10.07, -9.71, -9.71, -9.38, -9.66, -9.61, -9.61, -9.28, -9.28, -8.28, -8.28, -8.28, -8.05, -7.82, -7.82, -7.54, -6.84, -6.64, -6.64, -6.66, -6.31, -4.99, -4.15, -3.51, -3.11, -2.97, -2.28, -1.68, -0.85, -0.93, -0.99, 0.0, 0.0, 0.0, 0.0, 0.0, 1.55, 1.07, -1.49, -4.02, 0.0, 3.6, 3.58, 2.79, 3.07, 2.53, 1.83, 1.83, 1.83, 2.3, 3.22, 2.32, 0.95, 0.0, 3.4, 6.45, 6.01, 5.53, 5.1, 5.46, 1.84, -0.94, -1.95, -0.89, 0.0, 0.0, 0.0, 0.0, 4.4, 7.15, 6.45, 2.8, 0.88, -0.0, -0.0, 0.0, 4.02, 4.02, 3.95, 4.15, 3.93, 2.95, 2.53, 4.11, 5.6, 7.12, 7.63, 8.24, 8.67, 8.67, -9.1, -9.1, -9.48, -9.48, -9.48, -9.43, -9.43, -9.37, -10.07, -9.71, -9.71, -9.71, -9.66, -9.95, -9.61, -9.61, -9.28, -8.28, -8.28, -8.28, -7.82, -7.82, -7.82, -7.54, -7.54, -6.84, -6.64, -5.93, -6.1, -5.78, -4.81, -4.3, -4.13, -3.78, -2.97, -2.28, -2.47, -1.68, -1.84, -0.99, -1.0, -1.01, -1.03, 0.0, -0.88, -1.07, 0.0, 0.0, 1.8, 2.41, 2.51, 2.79, 2.0, 2.53, 1.83, 1.83, 0.96, 1.05, 1.05, 1.23, 0.0, 1.84, 4.5, 5.1, 4.5, 3.6, 2.82, 4.14, 4.14, 1.73, 0.96, 2.82, 3.8, 2.7, 1.84, 1.11, 5.29, 8.6, 7.37, 5.73, 1.32, -1.19, -1.7, -2.4, -0.0, 4.92, 1.8, 2.23, 1.8, 0.88, 0.0, 2.0, 4.98, 6.45, 7.63, 8.48, 8.73, 8.73, -9.1, -9.1, -9.48, -9.48, -9.48, -9.43, -9.43, -9.37, -10.07, -9.71, -9.71, -9.71, -9.38, -9.66, -9.61, -9.61, -9.28, -9.28, -8.53, -8.28, -8.28, -7.82, -8.05, -8.05, -7.54, -6.84, -7.11, -6.0, -5.93, -5.63, -6.48, -6.48, -5.0, -4.6, -3.78, -3.11, -3.11, -2.59, -2.47, -1.75, -1.84, -1.84, -1.84, -1.84, -2.47, -2.51, -0.67, 0.62, 1.36, 2.2, 2.6, 2.4, 1.35, 1.27, 1.41, 1.55, 0.88, 1.05, 0.0, 0.0, 0.0, 1.84, 3.8, 3.27, 2.69, 1.75, 0.89, 0.0, 1.58, 2.69, 3.77, 5.53, 5.46, 3.77, 2.6, 2.0, 4.2, 7.01, 5.81, 6.26, 5.69, -0.0, -2.28, -1.98, -5.37, -7.6, -2.8, 0.0, 0.0, 0.0, -0.81, 0.0, 5.26, 6.2, 7.53, 8.06, 8.06, 8.06, -9.1, -9.1, -9.48, -9.48, -9.48, -9.43, -9.43, -9.73, -10.07, -10.07, -9.71, -9.71, -9.71, -9.38, -9.95, -9.61, -9.28, -9.28, -8.84, -8.28, -8.53, -8.53, -8.05, -7.82, -7.82, -7.11, -7.17, -6.8, -6.21, -6.33, -6.84, -6.67, -5.76, -5.41, -4.6, -3.61, -3.78, -3.11, -3.21, -2.7, -2.83, -1.75, -1.73, -1.63, -2.47, -2.26, -0.73, 0.0, 1.28, 1.55, 1.63, 1.72, 0.76, 0.7, 0.63, 0.63, 0.63, 0.81, 0.0, 0.0, 0.0, 2.09, 2.83, 1.84, 1.0, 0.0, 0.0, 0.0, 0.0, 1.26, 3.63, 4.34, 3.32, 1.76, 1.7, 1.77, 2.83, 4.75, 7.6, 6.94, 8.24, 7.27, -0.0, -2.39, -5.69, -8.49, -6.94, -2.53, 0.0, -0.96, -1.99, 0.0, 4.47, 5.81, 7.08, 7.81, 7.63, 7.63, -8.79, -8.79, -9.48, -9.48, -9.48, -9.43, -9.43, -9.73, -9.76, -10.07, -9.71, -9.71, -9.71, -9.38, -9.66, -9.61, -9.61, -9.02, -9.02, -8.84, -8.53, -8.53, -8.05, -7.82, -7.82, -7.11, -7.17, -6.8, -7.44, -6.43, -6.48, -5.95, -6.59, -6.15, -5.76, -4.6, -4.2, -3.61, -3.88, -3.21, -2.57, -2.54, -2.4, -2.51, -2.35, -1.45, -1.49, -0.76, 0.0, 0.0, 0.0, 0.0, 0.0, 0.0, 0.76, 0.63, 0.0, 0.0, 0.0, 0.0, 1.49, 2.82, 2.99, 2.99, 1.01, 0.0, 0.0, 0.0, 0.0, 1.4, 2.69, 2.7, 2.58, 0.85, 0.86, 2.53, 3.29, 3.39, 7.59, 6.95, 9.2, 10.28, 7.27, -0.0, -7.27, -7.6, -6.17, -3.83, -2.32, -1.72, -1.99, 0.0, 3.6, 4.85, 6.71, 7.37, 7.81, 7.81, -8.79, -8.79, -9.48, -9.48, -9.48, -9.13, -9.43, -9.73, -9.76, -10.07, -9.71, -9.71, -9.71, -9.71, -9.66, -9.95, -9.33, -9.02, -9.02, -8.84, -8.84, -8.53, -8.05, -8.05, -7.82, -7.11, -7.17, -7.03, -7.79, -6.79, -5.4, -4.44, -5.21, -5.95, -5.52, -5.52, -4.4, -4.4, -3.61, -3.7, -3.32, -2.99, -2.4, -2.26, -2.26, -1.45, -1.4, -1.49, -0.76, -0.89, -0.84, 0.0, 0.0, 0.0, 0.0, 0.0, 0.0, 0.0, 0.0, 0.0, 0.63, 2.82, 2.82, 1.58, 1.32, 1.32, 0.89, 1.65, 0.89, 0.89, 1.58, 2.58, 1.22, 0.82, 0.8, 1.64, 2.53, 2.06, 0.0, -0.0, -0.0, 0.0, -0.0, -0.0, -4.46, -6.17, -5.81, -5.01, -1.98, -1.72, -0.96, 4.47, 4.4, 4.38, 4.92, 7.6, 8.24, 8.24, -8.79, -8.79, -9.48, -9.48, -9.48, -9.48, -9.43, -9.43, -9.76, -9.76, -9.71, -9.71, -9.71, -9.71, -9.71, -9.66, -9.33, -9.33, -9.02, -8.84, -8.84, -8.53, -8.53, -8.05, -8.05, -7.59, -7.17, -7.25, -7.25, -6.79, -6.08, -4.3, -4.44, -4.8, -5.21, -5.29, -4.71, -4.71, -4.4, -3.88, -3.7, -2.99, -2.18, -2.06, -2.66, -2.66, -2.06, -2.18, -2.18, -1.65, -1.84, -0.89, -0.95, 0.0, 0.0, 0.0, 0.0, 0.0, 0.0, 0.0, 0.73, 1.35, 1.58, 1.01, 1.0, 1.47, 1.95, 1.75, 0.85, 0.89, 0.0, 0.89, 1.28, 1.63, 0.83, 0.83, 0.86, 0.0, -2.06, -8.85, -0.0, -0.0, -0.0, 3.48, -0.0, -4.92, -4.66, 0.0, 0.0, 0.0, 0.0, 4.92, 4.4, 4.57, 4.47, 5.36, 8.48, 8.48, -9.17, -9.17, -9.48, -9.48, -9.48, -9.48, -9.43, -9.43, -9.76, -9.76, -9.76, -9.71, -9.71, -9.71, -9.71, -9.66, -9.33, -9.33, -9.02, -9.28, -8.84, -8.84, -8.53, -8.05, -7.82, -7.82, -7.17, -7.25, -7.25, -7.19, -6.08, -5.86, -5.0, -4.3, -4.8, -4.6, -5.06, -4.71, -4.5, -3.88, -3.7, -3.33, -2.66, -2.69, -2.12, -3.2, -3.4, -3.4, -3.09, -3.09, -2.51, -1.63, -1.84, -0.89, 0.0, 0.0, 0.0, 0.0, 0.0, 0.73, 0.73, 0.81, 0.0, 0.0, 1.0, 1.47, 1.0, 0.0, 0.0, 0.0, 0.0, 0.89, 1.22, 2.52, 1.64, 0.0, 0.0, 0.0, 0.0, -0.0, -0.0, -0.0, 3.79, 4.02, 4.47, 3.16, 1.55, 1.19, 0.96, 0.96, 3.48, 4.92, 4.98, 4.4, 4.92, 4.47, 5.64, 7.89, -9.17, -9.17, -9.17, -9.48, -9.48, -9.48, -9.43, -9.43, -10.12, -9.76, -9.76, -9.42, -9.42, -9.42, -9.71, -9.66, -9.66, -9.33, -9.33, -9.28, -8.84, -8.84, -8.84, -8.05, -8.05, -7.82, -7.17, -7.03, -7.49, -6.79, -6.94, -5.86, -5.3, -4.68, -4.3, -4.44, -4.07, -4.07, -3.88, -3.88, -3.7, -3.8, -3.2, -2.54, -1.55, -2.82, -3.91, -4.67, -4.22, -3.79, -3.55, -2.64, -1.72, -0.89, 0.0, 0.0, 0.0, 0.0, 0.0, 0.0, 0.73, 0.81, 1.58, 0.0, 0.0, 0.0, 0.0, 0.0, 0.0, 0.0, 0.84, 1.4, 1.33, 1.69, 2.44, 1.63, 0.0, -2.04, 0.0, 3.96, 6.64, 6.8, 6.36, 4.92, 4.66, 3.48, 2.4, 1.05, 0.88, 2.76, 4.98, 5.81, 5.26, 4.4, 4.47, 4.34, 5.2, 5.64, -9.17, -9.17, -9.17, -9.48, -9.48, -9.48, -9.13, -9.43, -10.12, -9.76, -9.76, -9.76, -9.42, -9.42, -9.71, -9.71, -9.66, -9.66, -9.33, -9.33, -8.84, -8.84, -8.84, -8.58, -7.82, -7.59, -7.17, -7.29, -7.44, -7.63, -7.19, -6.08, -5.86, -5.51, -4.68, -4.8, -3.95, -3.78, -3.88, -3.88, -3.7, -3.8, -3.69, -2.72, -1.84, -1.58, -4.26, -5.77, -5.84, -5.06, -4.19, -3.0, -1.98, -1.03, 0.0, 0.0, 0.0, 0.0, 0.0, 0.0, 0.73, 0.81, 0.76, 0.0, 0.0, 0.0, 0.0, 0.0, 0.0, 0.89, 0.89, 0.84, 0.0, 1.22, 2.52, 3.25, 0.85, -3.4, -4.2, 3.82, 3.72, 4.09, 5.94, 5.81, 4.8, 1.84, 0.0, 0.0, 2.16, 4.11, 5.51, 6.17, 5.36, 4.34, 4.47, 4.77, 4.46, 5.2, -9.17, -9.17, -8.79, -9.17, -9.48, -9.48, -9.13, -9.43, -9.8, -9.76, -9.76, -9.76, -9.42, -9.42, -9.71, -9.71, -9.66, -9.66, -9.33, -9.33, -8.58, -8.58, -8.84, -8.84, -8.12, -7.88, -7.17, -7.53, -7.19, -7.38, -6.79, -6.94, -6.08, -5.51, -5.3, -4.5, -4.31, -3.69, -3.78, -3.61, -3.61, -3.51, -3.91, -3.47, -3.4, -2.7, -2.82, -5.2, -6.14, -6.0, -4.02, -2.32, -1.23, -1.03, 0.0, 0.0, 0.0, 0.0, 0.0, 0.0, 0.0, 0.73, 0.0, 0.0, 0.0, 0.0, 0.0, 0.0, 0.0, 0.89, 0.89, 0.0, 0.0, 0.0, 1.39, 4.05, 3.6, 1.63, 6.26, 5.09, 2.48, 2.73, 3.48, 7.15, 5.37, 2.54, 1.84, 3.2, 4.29, 5.36, 6.64, 6.36, 5.29, 4.47, 4.02, 4.24, 3.79, 3.79, -9.17, -9.17, -9.17, -9.17, -9.17, -9.48, -9.48, -9.43, -9.8, -9.8, -9.46, -9.76, -9.42, -9.42, -9.42, -9.71, -9.38, -9.66, -9.38, -9.33, -9.33, -8.58, -8.58, -8.58, -8.12, -7.88, -7.69, -7.29, -7.19, -7.01, -7.38, -6.56, -6.33, -5.72, -5.51, -5.3, -4.5, -4.31, -3.69, -3.53, -3.61, -3.44, -3.6, -4.14, -4.8, -3.27, -1.4, -2.16, -2.73, -3.22, -3.49, -2.16, -1.14, 0.0, 0.0, 0.0, 0.0, 0.0, 0.0, 0.0, 0.0, 0.0, 0.81, 0.0, 0.0, 1.58, 1.4, 0.0, 0.89, 0.89, 0.0, 0.0, -1.26, -0.89, 0.0, 1.33, 3.45, 4.5, 4.5, 5.24, 5.75, 7.15, 4.0, 7.27, 9.39, 6.01, 3.72, 4.43, 4.43, 5.36, 7.01, 7.45, 5.26, 4.47, 4.0, 3.48, 3.48, 3.48, -9.17, -9.17, -9.17, -9.17, -9.17, -9.48, -9.48, -9.13, -9.8, -9.8, -9.46, -9.46, -9.76, -9.42, -9.42, -9.71, -9.71, -9.38, -9.38, -9.33, -9.33, -8.58, -8.58, -8.58, -8.33, -7.64, -7.69, -7.29, -7.19, -7.28, -7.12, -6.87, -6.33, -6.33, -5.51, -5.3, -5.3, -4.23, -4.05, -3.87, -3.37, -3.21, -3.51, -3.33, -4.07, -3.56, -2.23, -1.1, -1.23, -1.41, -1.47, -1.47, -0.88, -0.88, 0.0, 0.0, 0.0, 0.0, 0.0, 0.0, 0.0, 0.0, 0.0, 1.49, 1.49, 1.58, 1.67, 1.4, 1.73, 0.84, 0.0, -0.89, -1.67, -1.67, -1.67, 0.0, 2.47, 4.25, 5.14, 5.57, 6.94, 8.66, 13.86, 5.6, 7.59, 8.49, 6.79, 4.74, 4.43, 5.6, 6.07, 6.07, 5.2, 4.47, 4.0, 3.48, 3.48, 3.48, -8.85, -8.85, -9.17, -9.17, -9.17, -9.17, -9.48, -9.13, -9.48, -9.8, -9.46, -9.46, -9.76, -9.42, -9.42, -9.71, -9.71, -9.38, -9.38, -8.96, -8.9, -8.9, -8.58, -8.58, -8.58, -7.88, -7.69, -7.29, -7.67, -7.28, -6.77, -6.87, -6.87, -6.33, -6.33, -5.51, -5.3, -4.8, -4.23, -4.05, -3.87, -3.93, -4.0, -3.8, -3.6, -3.8, -3.05, -2.37, -1.71, -1.73, -1.76, -1.36, -0.72, -0.76, -0.76, 0.0, 0.0, 0.0, 0.0, 0.0, 0.0, 0.0, 0.0, 0.81, 2.99, 2.99, 1.67, 1.07, 0.94, 0.0, 0.0, -1.75, -2.69, -2.57, -1.75, 0.0, 1.68, 2.49, 3.39, 4.99, 6.1, 5.81, 4.95, 9.48, 7.9, 8.8, 8.94, 4.74, 5.58, 5.51, 8.48, 4.46, 5.09, 4.66, 4.0, 4.4, 4.4, 4.4, -8.85, -8.85, -8.85, -9.17, -9.17, -9.17, -9.48, -9.13, -9.48, -9.8, -9.46, -9.46, -9.76, -9.42, -9.78, -10.09, -10.09, -9.38, -9.38, -9.38, -8.96, -8.64, -8.9, -8.9, -8.18, -8.18, -7.93, -7.73, -7.34, -7.4, -7.28, -7.28, -6.87, -6.87, -6.33, -6.09, -5.0, -4.8, -4.8, -4.6, -3.87, -3.7, -3.75, -3.56, -3.8, -3.8, -3.05, -3.05, -2.37, -1.71, -1.73, -1.2, -1.32, -1.36, -0.67, -0.76, -0.76, -0.82, 0.0, 0.0, 0.0, 0.0, 0.0, 1.05, 2.11, 1.67, 0.0, 0.0, 0.0, 0.0, -1.75, -2.69, -1.84, -1.67, -0.89, 0.0, 0.89, 1.69, 2.49, 3.39, 3.53, 4.89, 2.5, 13.41, 8.53, 9.6, 9.83, 8.0, 6.8, 8.94, 5.2, 4.4, 5.26, 4.4, 4.4, 4.66, 4.66, 4.66, -8.85, -8.85, -8.85, -9.53, -9.17, -9.17, -9.17, -9.48, -9.48, -9.8, -9.8, -9.46, -9.46, -9.76, -9.78, -9.78, -9.78, -9.78, -9.42, -8.69, -8.96, -8.96, -8.18, -8.43, -8.43, -8.18, -7.93, -7.99, -8.05, -7.67, -7.73, -7.28, -7.28, -6.87, -6.87, -6.09, -5.77, -5.0, -4.8, -4.6, -4.4, -4.2, -4.24, -4.24, -3.56, -3.56, -3.56, -3.56, -3.05, -2.37, -2.4, -1.73, -1.88, -1.32, -1.26, -1.41, -0.82, -0.82, -0.89, 0.0, 0.0, 0.0, 0.0, 1.14, 1.7, 0.0, 0.0, -1.32, -1.32, -1.75, -2.69, -1.84, -1.67, -0.89, 0.0, 0.0, 0.89, 0.85, 1.69, 2.49, 2.6, 2.93, 1.83, 0.0, 4.1, 9.6, 8.94, 7.6, 6.26, 4.47, 4.24, 4.82, 5.26, 4.98, 4.4, 4.82, 4.82, 4.82, -8.85, -8.85, -8.85, -9.2, -9.17, -9.17, -9.17, -9.48, -9.48, -9.48, -9.8, -9.46, -9.46, -9.76, -9.78, -9.78, -9.78, -9.42, -9.42, -9.02, -8.96, -8.96, -8.76, -8.43, -8.43, -8.18, -7.93, -7.99, -8.05, -8.38, -8.01, -7.73, -7.28, -7.02, -6.87, -6.62, -5.77, -5.54, -5.54, -4.54, -4.35, -4.4, -4.2, -4.24, -4.24, -3.56, -3.56, -3.56, -3.56, -2.89, -2.89, -2.4, -1.88, -1.88, -1.98, -1.41, -1.6, -0.82, -0.89, -0.89, 0.0, 0.0, 0.0, 1.41, 1.99, 0.0, 0.0, -1.32, -1.32, -0.89, -0.89, -0.85, -0.89, -0.85, 0.0, 0.0, 0.0, 0.89, 1.62, 1.69, 2.49, 2.49, 1.61, -14.3, -0.0, 5.95, 7.6, 5.81, 4.92, 4.92, 4.47, 4.92, 4.77, 4.4, 4.4, 5.36, 5.36, 5.36, -8.85, -8.85, -8.85, -9.2, -8.85, -9.17, -9.17, -9.48, -9.48, -9.48, -9.8, -9.46, -9.46, -10.12, -10.12, -9.78, -9.78, -9.42, -9.42, -9.02, -9.02, -8.96, -8.96, -8.51, -8.18, -8.18, -7.93, -7.99, -8.31, -8.38, -8.44, -8.01, -7.28, -7.36, -7.36, -6.62, -6.29, -6.04, -5.54, -5.05, -5.05, -4.84, -4.88, -4.2, -4.24, -4.24, -3.56, -3.56, -3.56, -3.37, -3.09, -2.92, -2.6, -2.66, -2.12, -2.2, -1.41, -1.72, -1.72, -0.89, -0.95, 0.0, 0.0, 0.0, 0.0, 0.0, 0.0, 0.0, 0.0, -0.89, -1.75, -1.68, -0.85, -0.85, -0.85, 0.0, 0.0, 0.85, 1.68, 1.76, 2.59, 3.36, 2.13, -5.2, -0.0, 2.6, 5.81, 4.8, 3.6, 4.47, 3.82, 4.47, 4.47, 3.82, 4.92, 5.81, 5.81, 5.81, -8.85, -8.53, -8.85, -9.2, -9.2, -9.17, -9.17, -9.17, -9.48, -9.48, -9.8, -9.46, -9.76, -10.12, -9.8, -9.48, -9.13, -9.13, -8.74, -9.02, -9.02, -8.96, -8.96, -8.96, -8.51, -8.18, -8.25, -8.25, -8.31, -8.38, -8.73, -8.01, -8.37, -7.63, -7.36, -7.09, -6.04, -6.04, -6.04, -5.52, -5.52, -4.84, -4.84, -4.88, -4.45, -4.24, -4.24, -4.03, -4.03, -3.37, -3.6, -2.92, -3.14, -2.9, -2.26, -2.35, -2.04, -1.52, -1.72, -1.72, -0.95, -1.1, 0.0, 0.0, 0.0, 0.0, 0.0, 0.0, 0.0, -1.75, -2.69, -3.32, -3.49, -1.68, -0.85, 0.0, 0.0, 0.0, 1.75, 1.68, 2.47, 2.47, 2.7, 0.0, -0.0, 4.0, 4.92, 5.36, 4.77, 4.34, 4.02, 4.02, 3.58, 4.02, 4.92, 5.81, 5.81, 5.81, -8.53, -8.53, -8.53, -8.85, -9.2, -8.85, -9.17, -9.17, -9.83, -9.48, -9.8, -9.46, -9.76, -10.12, -9.8, -9.15, -9.15, -9.46, -9.42, -9.02, -9.02, -9.02, -8.96, -8.96, -8.96, -8.51, -8.25, -8.25, -8.31, -8.38, -8.73, -8.01, -8.37, -7.63, -7.63, -7.36, -7.09, -6.04, -5.8, -5.52, -5.52, -5.29, -5.29, -4.88, -4.66, -4.69, -4.24, -4.03, -4.03, -3.81, -3.6, -3.6, -3.14, -3.09, -2.9, -2.51, -2.2, -2.2, -2.47, -1.72, -1.84, -1.1, -1.32, -1.52, 0.0, 0.0, 0.0, 0.0, 0.0, -1.73, -2.67, -3.45, -4.56, -4.83, -2.47, -1.68, 0.0, 0.0, 0.89, 1.68, 1.68, 1.68, 1.68, 1.0, 5.6, 7.27, 5.51, 4.92, 4.92, 5.26, 4.77, 4.92, 4.47, 4.47, 5.26, 5.73, 5.73, 5.73, -8.53, -8.53, -8.53, -8.53, -9.2, -8.85, -8.85, -9.17, -9.5, -9.48, -9.8, -9.46, -10.12, -9.8, -9.48, -9.15, -9.46, -9.46, -9.42, -9.42, -9.42, -9.42, -8.96, -8.96, -8.96, -8.25, -8.25, -8.31, -8.31, -8.38, -8.73, -8.37, -8.37, -8.09, -7.63, -7.36, -7.09, -7.09, -6.5, -6.24, -5.95, -5.7, -5.29, -5.32, -5.32, -4.92, -4.69, -4.45, -4.03, -3.81, -4.05, -3.6, -3.33, -3.09, -3.09, -3.2, -3.0, -2.35, -2.35, -2.64, -1.84, -2.12, -2.49, -1.63, -1.84, 0.0, 0.0, 0.0, 0.0, 0.0, -0.94, -2.54, -3.45, -4.5, -4.2, -3.49, -1.75, 0.0, 0.0, 0.0, 0.85, 0.85, 0.85, 10.73, 6.44, 7.9, 5.95, 3.82, 4.02, 4.02, 4.02, 4.47, 4.92, 4.47, 5.26, 5.7, 5.7, 5.7, -8.9, -8.9, -8.53, -8.53, -9.2, -9.2, -8.85, -9.17, -9.5, -9.48, -9.8, -9.8, -9.8, -9.8, -9.15, -9.15, -9.46, -9.46, -9.13, -9.42, -9.42, -9.42, -8.96, -8.96, -8.96, -8.69, -8.25, -8.31, -8.66, -8.73, -8.73, -8.37, -8.37, -8.76, -8.46, -7.73, -7.36, -7.09, -6.5, -6.5, -6.24, -5.7, -5.7, -5.72, -5.32, -5.34, -4.69, -4.69, -4.45, -4.03, -4.28, -4.05, -3.6, -3.91, -3.09, -3.09, -3.2, -3.0, -3.0, -2.64, -2.64, -2.12, -2.12, -3.0, -1.98, -1.7, 0.0, 0.0, 0.0, 0.0, -0.84, -0.89, -0.89, 0.0, 0.0, -3.45, -1.67, -0.89, 0.0, 0.0, 0.0, 0.0, 0.0, -0.0, 1.91, 6.44, 5.37, 3.72, 3.82, 4.02, 4.02, 4.47, 4.47, 4.77, 4.4, 4.98, 4.98, 4.98, -8.9, -8.9, -8.53, -8.53, -8.87, -9.2, -8.85, -9.17, -9.5, -9.48, -9.48, -9.48, -9.48, -9.15, -8.85, -9.15, -9.46, -9.46, -9.46, -9.42, -9.42, -9.42, -9.42, -8.69, -8.69, -8.69, -7.99, -8.31, -8.66, -8.73, -8.79, -8.37, -8.76, -8.76, -8.46, -8.01, -7.73, -7.09, -7.09, -6.5, -6.24, -6.24, -5.98, -5.72, -5.32, -5.34, -5.34, -4.69, -4.69, -4.71, -4.71, -4.28, -4.14, -3.91, -3.91, -3.69, -3.4, -3.2, -3.2, -3.55, -2.64, -3.0, -3.0, -3.0, -3.72, -2.8, 0.0, 0.0, 0.0, -1.07, -0.84, 0.0, 0.0, 0.85, 1.67, 1.84, 0.0, 0.0, 0.0, 0.0, 0.0, 0.0, 0.84, 0.0, -0.0, 3.49, 3.48, 3.48, 3.35, 3.9, 4.34, 3.9, 4.34, 4.34, 4.4, 4.57, 4.57, 4.57, -8.57, -8.57, -8.53, -8.53, -8.87, -8.87, -8.85, -9.17, -9.17, -9.17, -9.17, -9.17, -9.17, -9.17, -8.85, -9.15, -9.46, -9.46, -9.46, -9.46, -9.42, -9.42, -9.42, -9.42, -8.69, -8.69, -8.74, -8.31, -8.38, -8.73, -8.79, -8.37, -8.76, -8.46, -8.01, -8.01, -7.73, -7.73, -7.09, -7.51, -6.9, -6.24, -6.54, -6.27, -5.85, -5.6, -5.34, -5.34, -5.09, -4.96, -4.71, -4.28, -4.14, -4.46, -3.91, -3.69, -4.03, -3.79, -3.79, -3.55, -3.55, -3.0, -3.0, -3.68, -3.97, -2.8, -2.6, 0.0, 0.0, -1.25, -1.0, 0.0, 0.0, 0.0, 0.89, 0.89, 0.0, 0.0, 0.0, 0.0, 0.0, 1.67, 2.57, 1.14, 2.54, 2.21, 2.53, 3.79, 3.48, 4.0, 3.6, 5.2, 6.0, 4.8, 4.8, 4.8, 4.8, 4.8, -8.57, -8.57, -8.22, -8.53, -8.54, -8.87, -8.53, -9.17, -9.17, -9.17, -9.17, -9.17, -9.17, -9.17, -8.85, -9.15, -9.46, -9.46, -9.46, -9.46, -9.46, -9.42, -9.42, -9.42, -9.02, -8.74, -8.74, -8.46, -8.38, -8.73, -8.79, -8.37, -8.76, -8.76, -8.46, -8.46, -7.73, -7.85, -7.85, -7.51, -6.81, -6.81, -6.54, -6.27, -6.27, -6.27, -5.6, -5.6, -5.34, -5.36, -4.96, -4.56, -4.87, -4.14, -4.46, -4.46, -4.03, -4.03, -3.79, -4.16, -3.55, -3.97, -3.2, -3.68, -4.29, -4.74, -2.8, -2.6, -2.6, -2.82, -1.14, -1.0, 0.0, 0.0, 0.0, 0.0, -0.85, 0.0, -0.85, 0.0, 0.85, 1.67, 2.7, 2.69, 5.06, 3.15, 2.4, 3.22, 3.22, 3.58, 4.0, 6.0, 5.81, 4.4, 4.29, 4.29, 4.29, 4.29, -8.57, -8.57, -8.57, -8.54, -8.54, -8.87, -8.53, -8.84, -8.84, -9.17, -9.17, -9.17, -9.17, -9.17, -8.85, -9.15, -9.15, -9.46, -9.46, -9.46, -9.46, -9.76, -9.42, -9.42, -9.13, -8.74, -8.74, -8.46, -8.38, -8.44, -8.79, -9.17, -8.76, -8.76, -8.85, -8.85, -8.53, -8.16, -7.85, -7.51, -6.81, -6.81, -6.54, -6.54, -6.27, -6.27, -6.0, -6.0, -5.34, -5.63, -5.36, -5.0, -4.87, -4.87, -4.46, -4.46, -4.56, -4.03, -3.79, -4.16, -4.16, -3.97, -3.97, -4.22, -5.37, -5.06, -4.43, -4.43, -4.43, -2.99, -1.14, 0.0, 0.0, 0.0, 0.0, 0.0, 0.0, 0.0, -0.94, 0.0, 0.85, 1.75, 1.84, 1.68, 2.66, 5.21, 2.4, 2.16, 1.99, 2.68, 3.16, 4.29, 4.22, 4.29, 4.65, 5.72, 5.72, 5.72, -8.24, -8.24, -8.24, -8.54, -8.54, -8.54, -8.82, -8.84, -8.84, -8.85, -9.17, -9.17, -9.17, -9.17, -9.17, -9.48, -9.8, -9.48, -9.46, -9.46, -9.46, -9.76, -9.42, -9.42, -9.13, -9.13, -8.46, -8.46, -8.78, -8.44, -8.79, -9.17, -8.46, -8.46, -8.85, -8.85, -8.53, -8.53, -8.16, -7.85, -7.44, -6.81, -6.81, -6.54, -6.54, -6.27, -6.27, -6.0, -6.0, -6.01, -5.63, -5.26, -5.31, -4.87, -4.94, -4.46, -4.83, -4.56, -4.56, -4.42, -4.42, -4.42, -4.22, -4.22, -4.75, -5.72, -5.58, -4.74, -4.74, -1.32, 0.0, 0.0, 0.0, 0.0, 0.0, 0.0, 0.0, 0.0, 0.85, 0.85, 0.89, 0.89, 0.81, 0.85, 1.07, 4.2, -0.0, 1.1, 1.23, 0.96, 1.83, 2.95, 3.49, 5.37, 6.01, 6.32, 6.32, 6.32, -8.24, -8.24, -8.24, -8.21, -8.21, -8.54, -8.82, -9.16, -8.53, -8.85, -9.17, -8.85, -9.17, -9.17, -9.17, -9.48, -9.48, -9.48, -9.48, -9.46, -9.8, -9.8, -10.12, -9.42, -9.13, -8.83, -8.46, -8.78, -8.49, -8.44, -8.79, -9.17, -8.46, -8.85, -8.85, -8.85, -8.53, -8.53, -8.22, -7.44, -7.44, -7.15, -6.81, -6.93, -6.93, -6.87, -6.87, -6.58, -6.58, -6.3, -6.01, -5.66, -5.59, -5.31, -5.21, -4.94, -5.3, -4.83, -4.83, -4.95, -4.95, -4.42, -4.87, -4.46, -5.03, -5.37, -5.95, -5.06, -5.06, -1.63, 0.0, 0.0, 1.32, 0.0, 0.0, 0.0, 0.0, 0.0, 0.0, 0.0, 0.89, 0.0, 0.0, 0.85, 0.94, 0.0, -1.54, -1.25, -0.0, -0.0, 0.88, 2.12, 2.99, 4.6, 5.59, 6.01, 6.01, 6.01, -8.24, -8.24, -8.53, -8.21, -8.21, -8.54, -8.54, -8.87, -8.53, -9.17, -9.17, -8.85, -9.17, -9.17, -9.17, -9.48, -9.48, -9.48, -9.48, -9.8, -9.8, -9.8, -9.8, -9.8, -9.13, -8.83, -8.83, -8.78, -8.49, -8.82, -8.79, -8.85, -8.46, -8.85, -8.85, -8.85, -8.53, -8.53, -8.22, -7.82, -7.55, -7.55, -7.55, -6.93, -7.55, -7.25, -6.87, -6.87, -6.58, -6.3, -6.31, -5.94, -5.98, -5.59, -5.64, -5.21, -5.3, -5.3, -5.24, -5.24, -5.24, -4.68, -5.15, -5.15, -5.15, -5.37, -5.72, -5.95, -6.4, -3.0, -2.26, 0.0, 0.0, 0.0, 0.0, 0.0, 0.0, 0.0, 0.0, 0.0, 0.0, 0.0, 0.0, 0.0, 0.94, 0.0, -4.96, -2.69, -1.25, -0.0, -0.0, 1.32, 2.69, 3.8, 5.44, 5.44, 5.44, 5.44, -8.24, -8.24, -8.53, -8.21, -8.21, -8.54, -8.54, -8.87, -8.53, -9.17, -9.17, -8.85, -9.17, -9.17, -9.17, -9.48, -9.48, -9.48, -9.48, -9.8, -9.8, -9.8, -9.8, -9.8, -9.13, -8.83, -8.83, -8.78, -8.49, -8.82, -8.79, -8.85, -8.46, -8.85, -8.85, -8.85, -8.53, -8.53, -8.22, -7.82, -7.55, -7.55, -7.55, -6.93, -7.55, -7.25, -6.87, -6.87, -6.58, -6.3, -6.31, -5.94, -5.98, -5.59, -5.64, -5.21, -5.3, -5.3, -5.24, -5.24, -5.24, -4.68, -5.15, -5.15, -5.15, -5.37, -5.72, -5.95, -6.4, -3.0, -2.26, 0.0, 0.0, 0.0, 0.0, 0.0, 0.0, 0.0, 0.0, 0.0, 0.0, 0.0, 0.0, 0.0, 0.85, 0.89, 0.0, -0.0, -0.0, -0.0, 1.14, 2.33, 3.8, 4.71, 5.44, 5.44, 5.44, 5.44]}]